TAP248 KLAX-LPPT

Flight info

Callsign TAP248
Flight time 10h 43m
Altitude 33000
Route OSHNN1 BEALE DCT BAWER DCT LARVE DCT EKR/N0462F350 J84 SNY J114 ONL J148 MCW DCT HOCKE DCT SYR DCT TUSKY/M081F370 DCT CARAC DCT JEBBY DCT 44N050W 43N040W 43N030W/M081F390 42N020W DCT DETOX/N0459F390 DCT XANEL DCT LAZET
Aircraft A339/H-SADE1E2E3GHIJ3J5M1P2RWXY/LB2D1

Departure

Time 2026-04-25 08:18
Airport Los Angeles International Airport (KLAX)

Arrival

Time 2026-04-25 19:02
Airport Lisbon Humberto Delgado Airport (LPPT)
Time Latitude Longitude Altitude Speed Heading
2026-04-25 07:40 33.94438 -118.41457 135 ft 0 kts 263°
2026-04-25 08:01 33.94439 -118.41443 135 ft 2 kts 263°
2026-04-25 08:01 33.94441 -118.41430 135 ft 2 kts 263°
2026-04-25 08:01 33.94442 -118.41413 135 ft 2 kts 263°
2026-04-25 08:02 33.94445 -118.41396 135 ft 2 kts 244°
2026-04-25 08:02 33.94453 -118.41381 135 ft 2 kts 228°
2026-04-25 08:02 33.94461 -118.41372 135 ft 2 kts 217°
2026-04-25 08:02 33.94470 -118.41365 135 ft 2 kts 205°
2026-04-25 08:03 33.94485 -118.41359 135 ft 2 kts 187°
2026-04-25 08:03 33.94502 -118.41359 135 ft 2 kts 174°
2026-04-25 08:03 33.94519 -118.41361 135 ft 2 kts 176°
2026-04-25 08:03 33.94535 -118.41362 135 ft 2 kts 174°
2026-04-25 08:04 33.94550 -118.41364 135 ft 2 kts 173°
2026-04-25 08:04 33.94564 -118.41366 135 ft 2 kts 173°
2026-04-25 08:04 33.94568 -118.41367 135 ft 0 kts 173°
2026-04-25 08:07 33.94563 -118.41366 135 ft 1 kts 173°
2026-04-25 08:07 33.94544 -118.41363 135 ft 4 kts 173°
2026-04-25 08:07 33.94505 -118.41357 135 ft 7 kts 173°
2026-04-25 08:08 33.94443 -118.41349 134 ft 10 kts 174°
2026-04-25 08:08 33.94362 -118.41338 134 ft 12 kts 174°
2026-04-25 08:08 33.94281 -118.41325 135 ft 10 kts 173°
2026-04-25 08:08 33.94256 -118.41321 136 ft 10 kts 173°
2026-04-25 08:09 33.94230 -118.41318 136 ft 10 kts 175°
2026-04-25 08:09 33.94156 -118.41307 136 ft 11 kts 173°
2026-04-25 08:09 33.94068 -118.41295 136 ft 13 kts 172°
2026-04-25 08:09 33.93968 -118.41280 136 ft 15 kts 173°
2026-04-25 08:10 33.93867 -118.41264 139 ft 13 kts 174°
2026-04-25 08:10 33.93789 -118.41250 141 ft 10 kts 158°
2026-04-25 08:10 33.93758 -118.41193 142 ft 9 kts 97°
2026-04-25 08:10 33.93763 -118.41129 142 ft 9 kts 83°
2026-04-25 08:11 33.93769 -118.41061 143 ft 10 kts 83°
2026-04-25 08:11 33.93777 -118.40987 143 ft 12 kts 83°
2026-04-25 08:11 33.93786 -118.40902 144 ft 13 kts 83°
2026-04-25 08:11 33.93795 -118.40807 144 ft 14 kts 83°
2026-04-25 08:12 33.93807 -118.40698 143 ft 16 kts 83°
2026-04-25 08:12 33.93823 -118.40530 140 ft 19 kts 83°
2026-04-25 08:12 33.93841 -118.40358 136 ft 22 kts 84°
2026-04-25 08:13 33.93885 -118.39917 129 ft 22 kts 84°
2026-04-25 08:13 33.93901 -118.39771 128 ft 21 kts 83°
2026-04-25 08:14 33.93961 -118.39264 119 ft 22 kts 88°
2026-04-25 08:14 33.93993 -118.38846 116 ft 20 kts 82°
2026-04-25 08:15 33.94012 -118.38683 115 ft 19 kts 84°
2026-04-25 08:15 33.94028 -118.38518 114 ft 19 kts 83°
2026-04-25 08:15 33.94040 -118.38411 113 ft 19 kts 83°
2026-04-25 08:16 33.94046 -118.38348 113 ft 19 kts 83°
2026-04-25 08:16 33.94063 -118.38187 112 ft 19 kts 85°
2026-04-25 08:16 33.94073 -118.38060 111 ft 9 kts 88°
2026-04-25 08:16 33.94037 -118.38007 111 ft 9 kts 159°
2026-04-25 08:17 33.93987 -118.38038 111 ft 9 kts 248°
2026-04-25 08:17 33.93975 -118.38114 111 ft 9 kts 262°
2026-04-25 08:17 33.93957 -118.38290 112 ft 46 kts 263°
2026-04-25 08:17 33.93893 -118.38920 117 ft 103 kts 263°
2026-04-25 08:18 33.93785 -118.39973 128 ft 151 kts 263°
2026-04-25 08:18 33.93651 -118.41382 247 ft 182 kts 265°
2026-04-25 08:18 33.93535 -118.42924 693 ft 188 kts 264°
2026-04-25 08:18 33.93377 -118.44492 1209 ft 194 kts 261°
2026-04-25 08:19 33.93084 -118.46084 1772 ft 195 kts 245°
2026-04-25 08:19 33.92300 -118.47380 2204 ft 193 kts 223°
2026-04-25 08:19 33.91370 -118.48566 2598 ft 197 kts 231°
2026-04-25 08:19 33.90502 -118.49874 2868 ft 207 kts 231°
2026-04-25 08:20 33.89564 -118.51238 3103 ft 219 kts 230°
2026-04-25 08:20 33.88538 -118.52692 3351 ft 232 kts 229°
2026-04-25 08:20 33.87460 -118.54211 3610 ft 246 kts 229°
2026-04-25 08:20 33.86159 -118.55617 3860 ft 260 kts 206°
2026-04-25 08:21 33.84490 -118.56095 4180 ft 269 kts 177°
2026-04-25 08:21 33.84259 -118.56081 4241 ft 269 kts 173°
2026-04-25 08:21 33.82452 -118.55616 4779 ft 271 kts 166°
2026-04-25 08:22 33.80599 -118.55063 5339 ft 274 kts 167°
2026-04-25 08:22 33.78738 -118.54528 5883 ft 276 kts 168°
2026-04-25 08:22 33.76850 -118.54003 6402 ft 280 kts 169°
2026-04-25 08:22 33.74940 -118.53484 6931 ft 282 kts 169°
2026-04-25 08:23 33.73018 -118.52966 7473 ft 284 kts 169°
2026-04-25 08:23 33.71104 -118.52367 8013 ft 287 kts 159°
2026-04-25 08:23 33.69518 -118.50948 8493 ft 295 kts 129°
2026-04-25 08:23 33.68601 -118.48747 8989 ft 300 kts 110°
2026-04-25 08:24 33.67947 -118.46364 9472 ft 303 kts 110°
2026-04-25 08:24 33.67277 -118.43928 9951 ft 307 kts 110°
2026-04-25 08:24 33.66582 -118.41493 10311 ft 314 kts 111°
2026-04-25 08:24 33.65850 -118.38993 10542 ft 327 kts 111°
2026-04-25 08:25 33.65086 -118.36362 10745 ft 340 kts 108°
2026-04-25 08:25 33.64565 -118.33567 10956 ft 354 kts 99°
2026-04-25 08:25 33.64400 -118.30524 11185 ft 367 kts 91°
2026-04-25 08:25 33.64407 -118.27447 11512 ft 375 kts 90°
2026-04-25 08:26 33.64440 -118.24284 11978 ft 379 kts 90°
2026-04-25 08:26 33.64485 -118.21143 12424 ft 384 kts 86°
2026-04-25 08:26 33.65153 -118.18017 12809 ft 388 kts 60°
2026-04-25 08:26 33.66831 -118.15514 13237 ft 386 kts 35°
2026-04-25 08:27 33.69020 -118.13622 13684 ft 387 kts 31°
2026-04-25 08:27 33.71237 -118.11769 14130 ft 392 kts 31°
2026-04-25 08:27 33.73480 -118.09854 14613 ft 395 kts 32°
2026-04-25 08:27 33.75720 -118.07896 15100 ft 398 kts 32°
2026-04-25 08:28 33.77944 -118.05925 15562 ft 401 kts 33°
2026-04-25 08:28 33.80203 -118.03906 16048 ft 403 kts 33°
2026-04-25 08:28 33.82441 -118.01894 16523 ft 405 kts 33°
2026-04-25 08:28 33.84726 -117.99836 16971 ft 408 kts 33°
2026-04-25 08:29 33.86958 -117.97826 17430 ft 411 kts 33°
2026-04-25 08:29 33.89251 -117.95760 17896 ft 413 kts 33°
2026-04-25 08:29 33.91579 -117.93658 18358 ft 415 kts 33°
2026-04-25 08:29 33.93895 -117.91546 18809 ft 418 kts 33°
2026-04-25 08:30 33.96208 -117.89429 19240 ft 421 kts 33°
2026-04-25 08:30 33.98547 -117.87288 19661 ft 424 kts 33°
2026-04-25 08:30 34.00913 -117.85123 20095 ft 426 kts 34°
2026-04-25 08:30 34.03273 -117.82961 20498 ft 429 kts 34°
2026-04-25 08:31 34.05667 -117.80765 20896 ft 432 kts 34°
2026-04-25 08:31 34.08016 -117.78445 21270 ft 437 kts 39°
2026-04-25 08:31 34.10195 -117.75882 21638 ft 442 kts 44°
2026-04-25 08:31 34.12220 -117.73060 22020 ft 445 kts 48°
2026-04-25 08:32 34.14169 -117.70161 22383 ft 447 kts 49°
2026-04-25 08:32 34.16114 -117.67233 22739 ft 450 kts 49°
2026-04-25 08:32 34.18106 -117.64241 23084 ft 452 kts 49°
2026-04-25 08:32 34.20092 -117.61268 23429 ft 455 kts 49°
2026-04-25 08:33 34.22077 -117.58304 23748 ft 457 kts 48°
2026-04-25 08:33 34.24090 -117.55302 24070 ft 460 kts 48°
2026-04-25 08:33 34.26117 -117.52280 24378 ft 463 kts 48°
2026-04-25 08:33 34.28142 -117.49257 24675 ft 466 kts 48°
2026-04-25 08:34 34.30195 -117.46195 24974 ft 468 kts 48°
2026-04-25 08:34 34.32252 -117.43132 25261 ft 471 kts 48°
2026-04-25 08:34 34.34341 -117.40014 25606 ft 472 kts 48°
2026-04-25 08:34 34.36406 -117.36926 25969 ft 473 kts 47°
2026-04-25 08:35 34.38500 -117.33793 26343 ft 473 kts 48°
2026-04-25 08:35 34.40567 -117.30701 26652 ft 474 kts 48°
2026-04-25 08:35 34.42637 -117.27593 26808 ft 479 kts 48°
2026-04-25 08:35 34.44729 -117.24449 27017 ft 482 kts 48°
2026-04-25 08:36 34.46840 -117.21273 27280 ft 484 kts 48°
2026-04-25 08:36 34.48935 -117.18116 27534 ft 486 kts 48°
2026-04-25 08:36 34.51066 -117.14903 27789 ft 487 kts 48°
2026-04-25 08:36 34.53200 -117.11687 27994 ft 490 kts 48°
2026-04-25 08:37 34.55338 -117.08485 28248 ft 491 kts 47°
2026-04-25 08:37 34.57533 -117.05287 28489 ft 493 kts 47°
2026-04-25 08:37 34.59729 -117.02109 28743 ft 494 kts 47°
2026-04-25 08:37 34.61936 -116.98913 29020 ft 495 kts 46°
2026-04-25 08:38 34.64140 -116.95712 29237 ft 497 kts 47°
2026-04-25 08:38 34.66375 -116.92458 29437 ft 499 kts 47°
2026-04-25 08:38 34.68580 -116.89236 29681 ft 500 kts 47°
2026-04-25 08:38 34.70822 -116.85956 29881 ft 502 kts 47°
2026-04-25 08:39 34.73032 -116.82716 30096 ft 504 kts 47°
2026-04-25 08:39 34.75297 -116.79394 30282 ft 506 kts 46°
2026-04-25 08:39 34.77537 -116.76104 30445 ft 509 kts 47°
2026-04-25 08:39 34.79809 -116.72767 30641 ft 511 kts 47°
2026-04-25 08:40 34.82062 -116.69451 30806 ft 513 kts 46°
2026-04-25 08:40 34.84324 -116.66121 30958 ft 515 kts 46°
2026-04-25 08:40 34.86673 -116.62816 31101 ft 517 kts 44°
2026-04-25 08:40 34.89084 -116.59576 31266 ft 518 kts 43°
2026-04-25 08:41 34.91546 -116.56303 31456 ft 520 kts 43°
2026-04-25 08:41 34.93994 -116.53050 31630 ft 522 kts 43°
2026-04-25 08:41 34.96446 -116.49784 31767 ft 524 kts 43°
2026-04-25 08:41 34.98877 -116.46535 31921 ft 526 kts 43°
2026-04-25 08:42 35.01350 -116.43226 32081 ft 528 kts 43°
2026-04-25 08:42 35.03836 -116.39892 32242 ft 531 kts 43°
2026-04-25 08:42 35.06304 -116.36580 32434 ft 531 kts 43°
2026-04-25 08:42 35.08803 -116.33221 32605 ft 533 kts 43°
2026-04-25 08:43 35.11306 -116.29849 32730 ft 535 kts 44°
2026-04-25 08:43 35.16332 -116.23071 32825 ft 537 kts 43°
2026-04-25 08:44 35.21341 -116.16299 32810 ft 535 kts 43°
2026-04-25 08:44 35.26316 -116.09569 32819 ft 536 kts 43°
2026-04-25 08:45 35.31300 -116.02811 32815 ft 534 kts 43°
2026-04-25 08:45 35.36293 -115.96027 32815 ft 535 kts 43°
2026-04-25 08:46 35.41259 -115.89262 32824 ft 534 kts 43°
2026-04-25 08:46 35.46256 -115.82449 32832 ft 534 kts 43°
2026-04-25 08:47 35.51184 -115.75706 32855 ft 533 kts 43°
2026-04-25 08:47 35.56151 -115.68909 32852 ft 533 kts 43°
2026-04-25 08:48 35.61098 -115.62110 32847 ft 533 kts 43°
2026-04-25 08:48 35.66013 -115.55346 32862 ft 532 kts 43°
2026-04-25 08:49 35.70966 -115.48521 32858 ft 532 kts 43°
2026-04-25 08:49 35.75888 -115.41733 32847 ft 531 kts 43°
2026-04-25 08:50 35.80767 -115.34984 32846 ft 531 kts 44°
2026-04-25 08:50 35.85701 -115.28145 32824 ft 530 kts 43°
2026-04-25 08:51 35.90597 -115.21345 32826 ft 529 kts 43°
2026-04-25 08:51 35.95503 -115.14511 32813 ft 529 kts 43°
2026-04-25 08:52 36.00380 -115.07705 32812 ft 529 kts 43°
2026-04-25 08:52 36.05241 -115.00907 32811 ft 528 kts 43°
2026-04-25 08:53 36.10093 -114.94102 32803 ft 527 kts 43°
2026-04-25 08:53 36.14975 -114.87249 32798 ft 527 kts 43°
2026-04-25 08:54 36.19691 -114.80262 32800 ft 530 kts 48°
2026-04-25 08:54 36.24062 -114.72921 32806 ft 531 kts 49°
2026-04-25 08:55 36.28410 -114.65498 32810 ft 531 kts 49°
2026-04-25 08:55 36.32753 -114.58091 32806 ft 530 kts 48°
2026-04-25 08:56 36.37096 -114.50697 32796 ft 531 kts 49°
2026-04-25 08:56 36.41454 -114.43258 32794 ft 531 kts 49°
2026-04-25 08:57 36.45787 -114.35847 32797 ft 531 kts 48°
2026-04-25 08:57 36.50137 -114.28394 32789 ft 530 kts 49°
2026-04-25 08:58 36.54480 -114.20937 32793 ft 531 kts 49°
2026-04-25 08:58 36.58792 -114.13509 32798 ft 531 kts 49°
2026-04-25 08:59 36.63121 -114.06037 32804 ft 530 kts 49°
2026-04-25 08:59 36.67404 -113.98634 32799 ft 530 kts 49°
2026-04-25 09:00 36.71732 -113.91135 32809 ft 530 kts 49°
2026-04-25 09:00 36.76027 -113.83678 32833 ft 530 kts 49°
2026-04-25 09:01 36.80316 -113.76207 32853 ft 529 kts 49°
2026-04-25 09:01 36.84588 -113.68755 32873 ft 529 kts 48°
2026-04-25 09:02 36.88889 -113.61240 32869 ft 529 kts 48°
2026-04-25 09:02 36.93150 -113.53773 32860 ft 529 kts 48°
2026-04-25 09:03 36.97403 -113.46307 32840 ft 529 kts 48°
2026-04-25 09:03 37.01663 -113.38808 32846 ft 530 kts 48°
2026-04-25 09:04 37.05928 -113.31287 32866 ft 529 kts 49°
2026-04-25 09:04 37.10186 -113.23761 32894 ft 528 kts 49°
2026-04-25 09:05 37.14428 -113.16247 32920 ft 528 kts 49°
2026-04-25 09:05 37.18663 -113.08720 32937 ft 526 kts 49°
2026-04-25 09:06 37.22873 -113.01229 32950 ft 526 kts 49°
2026-04-25 09:06 37.27084 -112.93718 32961 ft 525 kts 49°
2026-04-25 09:07 37.31287 -112.86204 32966 ft 524 kts 49°
2026-04-25 09:07 37.35469 -112.78709 32964 ft 523 kts 49°
2026-04-25 09:08 37.39631 -112.71233 32966 ft 521 kts 49°
2026-04-25 09:08 37.43781 -112.63770 32974 ft 521 kts 50°
2026-04-25 09:09 37.47901 -112.56331 32977 ft 520 kts 50°
2026-04-25 09:09 37.52031 -112.48857 32979 ft 520 kts 50°
2026-04-25 09:10 37.56156 -112.41379 32983 ft 520 kts 50°
2026-04-25 09:10 37.60274 -112.33900 32993 ft 521 kts 50°
2026-04-25 09:11 37.66701 -112.22846 32985 ft 518 kts 47°
2026-04-25 09:11 37.71144 -112.15777 32924 ft 517 kts 47°
2026-04-25 09:12 37.75633 -112.08610 32910 ft 516 kts 47°
2026-04-25 09:12 37.80046 -112.01526 32957 ft 514 kts 47°
2026-04-25 09:13 37.84456 -111.94427 33003 ft 513 kts 47°
2026-04-25 09:13 37.88843 -111.87346 33016 ft 512 kts 47°
2026-04-25 09:14 37.93218 -111.80273 33015 ft 511 kts 47°
2026-04-25 09:14 37.97582 -111.73202 33018 ft 511 kts 47°
2026-04-25 09:15 38.01935 -111.66129 33020 ft 510 kts 47°
2026-04-25 09:15 38.06296 -111.59028 33014 ft 510 kts 47°
2026-04-25 09:16 38.10632 -111.51952 32986 ft 510 kts 47°
2026-04-25 09:16 38.14994 -111.44816 32984 ft 508 kts 47°
2026-04-25 09:17 38.21463 -111.34216 32950 ft 507 kts 48°
2026-04-25 09:18 38.25823 -111.27052 32941 ft 509 kts 48°
2026-04-25 09:18 38.30123 -111.19962 32934 ft 508 kts 48°
2026-04-25 09:19 38.34453 -111.12814 32929 ft 509 kts 48°
2026-04-25 09:19 38.38739 -111.05718 32929 ft 507 kts 49°
2026-04-25 09:20 38.43045 -110.98577 32911 ft 507 kts 49°
2026-04-25 09:20 38.47315 -110.91480 32918 ft 506 kts 49°
2026-04-25 09:21 38.51612 -110.84321 32895 ft 506 kts 48°
2026-04-25 09:21 38.55874 -110.77206 32910 ft 506 kts 48°
2026-04-25 09:22 38.60141 -110.70068 32908 ft 506 kts 48°
2026-04-25 09:22 38.64409 -110.62912 32901 ft 506 kts 48°
2026-04-25 09:23 38.68650 -110.55785 32919 ft 506 kts 49°
2026-04-25 09:23 38.72889 -110.48640 32901 ft 504 kts 49°
2026-04-25 09:24 38.77103 -110.41529 32886 ft 503 kts 49°
2026-04-25 09:24 38.81340 -110.34362 32880 ft 502 kts 49°
2026-04-25 09:25 38.85549 -110.27223 32886 ft 502 kts 49°
2026-04-25 09:25 38.89733 -110.20115 32855 ft 503 kts 49°
2026-04-25 09:26 38.93927 -110.12968 32871 ft 503 kts 49°
2026-04-25 09:26 38.98134 -110.05780 32867 ft 501 kts 49°
2026-04-25 09:27 39.02288 -109.98666 32856 ft 499 kts 49°
2026-04-25 09:27 39.06368 -109.91409 32872 ft 501 kts 52°
2026-04-25 09:28 39.10236 -109.83991 32872 ft 503 kts 52°
2026-04-25 09:28 39.14147 -109.76432 32883 ft 504 kts 52°
2026-04-25 09:29 39.18019 -109.68942 32890 ft 505 kts 53°
2026-04-25 09:29 39.21921 -109.61381 32891 ft 505 kts 52°
2026-04-25 09:30 39.25791 -109.53871 32888 ft 505 kts 53°
2026-04-25 09:30 39.29686 -109.46294 32889 ft 505 kts 52°
2026-04-25 09:31 39.33556 -109.38750 32880 ft 506 kts 53°
2026-04-25 09:31 39.37422 -109.31196 32874 ft 506 kts 53°
2026-04-25 09:32 39.41305 -109.23591 32874 ft 507 kts 53°
2026-04-25 09:32 39.45190 -109.15962 32883 ft 508 kts 53°
2026-04-25 09:33 39.49060 -109.08340 32884 ft 508 kts 53°
2026-04-25 09:33 39.52935 -109.00694 32891 ft 508 kts 53°
2026-04-25 09:34 39.56818 -108.93014 32882 ft 508 kts 53°
2026-04-25 09:34 39.60667 -108.85385 32878 ft 508 kts 53°
2026-04-25 09:35 39.64520 -108.77728 32873 ft 508 kts 53°
2026-04-25 09:35 39.68382 -108.70036 32880 ft 508 kts 53°
2026-04-25 09:36 39.72213 -108.62385 32902 ft 508 kts 53°
2026-04-25 09:36 39.76088 -108.54627 32913 ft 508 kts 53°
2026-04-25 09:37 39.79906 -108.46959 32916 ft 508 kts 53°
2026-04-25 09:37 39.83730 -108.39265 32905 ft 507 kts 53°
2026-04-25 09:38 39.87567 -108.31525 32883 ft 507 kts 54°
2026-04-25 09:38 39.91305 -108.23967 32886 ft 508 kts 54°
2026-04-25 09:39 39.95132 -108.16210 32888 ft 508 kts 54°
2026-04-25 09:39 39.98938 -108.08467 32886 ft 507 kts 54°
2026-04-25 09:40 40.04513 -107.96764 32879 ft 506 kts 58°
2026-04-25 09:40 40.07521 -107.88472 32890 ft 507 kts 65°
2026-04-25 09:41 40.09805 -107.79667 32903 ft 510 kts 71°
2026-04-25 09:41 40.11830 -107.70773 32903 ft 509 kts 71°
2026-04-25 09:42 40.13841 -107.61937 32927 ft 509 kts 71°
2026-04-25 09:42 40.15867 -107.53083 32947 ft 509 kts 71°
2026-04-25 09:43 40.17895 -107.44212 32950 ft 509 kts 71°
2026-04-25 09:43 40.19907 -107.35379 32955 ft 508 kts 71°
2026-04-25 09:44 40.21920 -107.26523 32964 ft 508 kts 72°
2026-04-25 09:44 40.23923 -107.17662 32963 ft 508 kts 72°
2026-04-25 09:45 40.25906 -107.08852 32976 ft 508 kts 72°
2026-04-25 09:45 40.27900 -106.99963 32976 ft 509 kts 72°
2026-04-25 09:46 40.29872 -106.91142 32977 ft 508 kts 72°
2026-04-25 09:46 40.31858 -106.82215 32976 ft 508 kts 72°
2026-04-25 09:47 40.33830 -106.73322 32967 ft 508 kts 72°
2026-04-25 09:47 40.35793 -106.64432 32987 ft 511 kts 72°
2026-04-25 09:48 40.37771 -106.55437 33191 ft 516 kts 72°
2026-04-25 09:48 40.38752 -106.50957 33425 ft 516 kts 72°
2026-04-25 09:48 40.39749 -106.46395 33705 ft 514 kts 72°
2026-04-25 09:49 40.40728 -106.41911 33976 ft 513 kts 72°
2026-04-25 09:49 40.41699 -106.37449 34203 ft 513 kts 72°
2026-04-25 09:49 40.42675 -106.32962 34391 ft 513 kts 73°
2026-04-25 09:49 40.43663 -106.28410 34559 ft 513 kts 73°
2026-04-25 09:50 40.44631 -106.23941 34694 ft 513 kts 73°
2026-04-25 09:50 40.45605 -106.19428 34829 ft 513 kts 73°
2026-04-25 09:50 40.46570 -106.14948 34934 ft 513 kts 73°
2026-04-25 09:50 40.47536 -106.10449 34967 ft 515 kts 73°
2026-04-25 09:51 40.49472 -106.01418 34977 ft 515 kts 73°
2026-04-25 09:51 40.51398 -105.92381 35005 ft 514 kts 73°
2026-04-25 09:52 40.53320 -105.83347 35006 ft 514 kts 72°
2026-04-25 09:52 40.55243 -105.74273 35018 ft 514 kts 73°
2026-04-25 09:53 40.57144 -105.65246 35023 ft 513 kts 73°
2026-04-25 09:53 40.59043 -105.56191 35022 ft 513 kts 73°
2026-04-25 09:54 40.60924 -105.47165 34995 ft 513 kts 73°
2026-04-25 09:54 40.62802 -105.38130 34981 ft 513 kts 73°
2026-04-25 09:55 40.64671 -105.29092 34952 ft 512 kts 74°
2026-04-25 09:55 40.66542 -105.20010 34938 ft 512 kts 73°
2026-04-25 09:56 40.68390 -105.10998 34944 ft 512 kts 74°
2026-04-25 09:56 40.70234 -105.01968 34962 ft 512 kts 74°
2026-04-25 09:57 40.72075 -104.92907 34971 ft 512 kts 74°
2026-04-25 09:57 40.73926 -104.83761 34970 ft 512 kts 74°
2026-04-25 09:58 40.75752 -104.74695 34975 ft 512 kts 73°
2026-04-25 09:58 40.77565 -104.65650 34976 ft 513 kts 74°
2026-04-25 09:59 40.79376 -104.56587 34968 ft 513 kts 74°
2026-04-25 09:59 40.81175 -104.47534 34966 ft 513 kts 73°
2026-04-25 10:00 40.82987 -104.38382 34967 ft 514 kts 74°
2026-04-25 10:00 40.84775 -104.29307 34971 ft 514 kts 75°
2026-04-25 10:01 40.86572 -104.20141 34971 ft 514 kts 75°
2026-04-25 10:01 40.88345 -104.11057 34977 ft 513 kts 75°
2026-04-25 10:02 40.90139 -104.01829 34970 ft 514 kts 75°
2026-04-25 10:02 40.91895 -103.92750 34970 ft 515 kts 74°
2026-04-25 10:03 40.93660 -103.83580 34965 ft 515 kts 75°
2026-04-25 10:03 40.95417 -103.74412 34964 ft 516 kts 75°
2026-04-25 10:04 40.97168 -103.65236 34958 ft 516 kts 75°
2026-04-25 10:04 40.98911 -103.56045 34961 ft 517 kts 75°
2026-04-25 10:05 41.00649 -103.46847 34952 ft 517 kts 75°
2026-04-25 10:05 41.02387 -103.37607 34949 ft 517 kts 75°
2026-04-25 10:06 41.04108 -103.28414 34946 ft 517 kts 76°
2026-04-25 10:06 41.05832 -103.19150 34943 ft 518 kts 75°
2026-04-25 10:07 41.07544 -103.09914 34944 ft 518 kts 76°
2026-04-25 10:07 41.09242 -103.00684 34939 ft 518 kts 76°
2026-04-25 10:08 41.11026 -102.91450 34939 ft 517 kts 74°
2026-04-25 10:08 41.12899 -102.82296 34942 ft 517 kts 74°
2026-04-25 10:09 41.14763 -102.73090 34941 ft 517 kts 74°
2026-04-25 10:09 41.16597 -102.63926 34939 ft 518 kts 74°
2026-04-25 10:10 41.18439 -102.54657 34938 ft 518 kts 74°
2026-04-25 10:10 41.20255 -102.45466 34939 ft 517 kts 74°
2026-04-25 10:11 41.22061 -102.36284 34933 ft 517 kts 75°
2026-04-25 10:11 41.23878 -102.27026 34927 ft 518 kts 75°
2026-04-25 10:12 41.25688 -102.17773 34931 ft 518 kts 75°
2026-04-25 10:13 41.28371 -102.03951 34920 ft 517 kts 75°
2026-04-25 10:13 41.30146 -101.94750 34917 ft 517 kts 75°
2026-04-25 10:14 41.31915 -101.85537 34918 ft 517 kts 75°
2026-04-25 10:14 41.33679 -101.76315 34915 ft 517 kts 75°
2026-04-25 10:15 41.35440 -101.67058 34913 ft 517 kts 75°
2026-04-25 10:15 41.37190 -101.57810 34914 ft 517 kts 75°
2026-04-25 10:16 41.38938 -101.48526 34909 ft 516 kts 75°
2026-04-25 10:16 41.40661 -101.39337 34917 ft 517 kts 75°
2026-04-25 10:17 41.42397 -101.30029 34918 ft 516 kts 76°
2026-04-25 10:17 41.44112 -101.20784 34922 ft 517 kts 76°
2026-04-25 10:18 41.45826 -101.11507 34925 ft 517 kts 76°
2026-04-25 10:18 41.47520 -101.02295 34917 ft 515 kts 76°
2026-04-25 10:19 41.49213 -100.93026 34926 ft 516 kts 76°
2026-04-25 10:19 41.50934 -100.83762 34931 ft 516 kts 74°
2026-04-25 10:20 41.53220 -100.74738 34933 ft 517 kts 67°
2026-04-25 10:20 41.56318 -100.66067 34938 ft 516 kts 59°
2026-04-25 10:21 41.60046 -100.57935 34934 ft 516 kts 55°
2026-04-25 10:21 41.63921 -100.49860 34942 ft 516 kts 55°
2026-04-25 10:22 41.67771 -100.41763 34924 ft 517 kts 55°
2026-04-25 10:22 41.71610 -100.33630 34915 ft 519 kts 56°
2026-04-25 10:23 41.75463 -100.25431 34930 ft 520 kts 56°
2026-04-25 10:23 41.79286 -100.17268 34930 ft 519 kts 56°
2026-04-25 10:24 41.83109 -100.09085 34938 ft 520 kts 56°
2026-04-25 10:24 41.86931 -100.00883 34950 ft 520 kts 56°
2026-04-25 10:25 41.90729 -99.92703 34949 ft 520 kts 56°
2026-04-25 10:25 41.94561 -99.84431 34949 ft 521 kts 56°
2026-04-25 10:26 41.98396 -99.76137 34964 ft 522 kts 56°
2026-04-25 10:26 42.02197 -99.67882 34960 ft 522 kts 56°
2026-04-25 10:27 42.06015 -99.59577 34960 ft 523 kts 56°
2026-04-25 10:27 42.09827 -99.51253 34969 ft 523 kts 56°
2026-04-25 10:28 42.13633 -99.42928 34970 ft 523 kts 56°
2026-04-25 10:28 42.17453 -99.34544 34970 ft 523 kts 56°
2026-04-25 10:29 42.21300 -99.26069 34969 ft 525 kts 56°
2026-04-25 10:29 42.25115 -99.17648 34970 ft 525 kts 56°
2026-04-25 10:30 42.28911 -99.09251 34978 ft 525 kts 56°
2026-04-25 10:30 42.32706 -99.00819 34972 ft 525 kts 56°
2026-04-25 10:31 42.36494 -98.92386 34977 ft 526 kts 56°
2026-04-25 10:31 42.40253 -98.83975 34977 ft 526 kts 56°
2026-04-25 10:32 42.43888 -98.75375 34982 ft 528 kts 61°
2026-04-25 10:32 42.46784 -98.66229 34990 ft 529 kts 69°
2026-04-25 10:33 42.48791 -98.56695 34995 ft 530 kts 77°
2026-04-25 10:33 42.50156 -98.46948 34995 ft 531 kts 79°
2026-04-25 10:34 42.51469 -98.37135 34986 ft 531 kts 79°
2026-04-25 10:34 42.52813 -98.27257 34987 ft 531 kts 79°
2026-04-25 10:35 42.54150 -98.17462 34987 ft 532 kts 79°
2026-04-25 10:35 42.55492 -98.07590 34986 ft 531 kts 79°
2026-04-25 10:36 42.56816 -97.97793 34986 ft 532 kts 79°
2026-04-25 10:36 42.58133 -97.87978 34982 ft 531 kts 79°
2026-04-25 10:37 42.59443 -97.78156 34981 ft 530 kts 79°
2026-04-25 10:37 42.60741 -97.68357 34976 ft 530 kts 79°
2026-04-25 10:38 42.62038 -97.58498 34978 ft 530 kts 79°
2026-04-25 10:38 42.63320 -97.48678 34974 ft 529 kts 79°
2026-04-25 10:39 42.64591 -97.38876 34973 ft 529 kts 79°
2026-04-25 10:39 42.65852 -97.29091 34974 ft 528 kts 80°
2026-04-25 10:40 42.67106 -97.19279 34980 ft 528 kts 80°
2026-04-25 10:40 42.68351 -97.09466 34979 ft 527 kts 80°
2026-04-25 10:41 42.69579 -96.99718 34982 ft 526 kts 80°
2026-04-25 10:41 42.70803 -96.89951 34990 ft 526 kts 80°
2026-04-25 10:42 42.72017 -96.80173 34992 ft 525 kts 80°
2026-04-25 10:42 42.73220 -96.70423 34989 ft 526 kts 79°
2026-04-25 10:43 42.74418 -96.60638 34981 ft 525 kts 80°
2026-04-25 10:43 42.75611 -96.50822 34981 ft 526 kts 79°
2026-04-25 10:44 42.76792 -96.41029 34979 ft 525 kts 80°
2026-04-25 10:44 42.77969 -96.31229 34980 ft 525 kts 81°
2026-04-25 10:45 42.79129 -96.21458 34985 ft 526 kts 80°
2026-04-25 10:45 42.80291 -96.11591 34986 ft 525 kts 81°
2026-04-25 10:46 42.81443 -96.01762 34982 ft 525 kts 80°
2026-04-25 10:46 42.82576 -95.91994 34977 ft 526 kts 80°
2026-04-25 10:47 42.83704 -95.82221 34976 ft 526 kts 80°
2026-04-25 10:47 42.84833 -95.72365 34977 ft 526 kts 80°
2026-04-25 10:48 42.85947 -95.62534 34981 ft 526 kts 80°
2026-04-25 10:48 42.87049 -95.52748 34983 ft 526 kts 81°
2026-04-25 10:49 42.88148 -95.42903 34985 ft 526 kts 80°
2026-04-25 10:49 42.89237 -95.33085 34983 ft 526 kts 81°
2026-04-25 10:50 42.90327 -95.23167 34980 ft 526 kts 81°
2026-04-25 10:50 42.91399 -95.13326 34980 ft 525 kts 81°
2026-04-25 10:51 42.92467 -95.03446 34981 ft 526 kts 81°
2026-04-25 10:51 42.93520 -94.93629 34981 ft 525 kts 81°
2026-04-25 10:52 42.94547 -94.83953 34984 ft 525 kts 81°
2026-04-25 10:52 42.95579 -94.74142 34988 ft 525 kts 81°
2026-04-25 10:53 42.96611 -94.64287 34992 ft 523 kts 81°
2026-04-25 10:53 42.97632 -94.54445 34989 ft 522 kts 81°
2026-04-25 10:54 42.98648 -94.44563 34996 ft 521 kts 81°
2026-04-25 10:54 42.99644 -94.34779 34991 ft 520 kts 81°
2026-04-25 10:55 43.00629 -94.25003 34995 ft 520 kts 81°
2026-04-25 10:55 43.01603 -94.15263 34998 ft 518 kts 82°
2026-04-25 10:56 43.02575 -94.05461 35000 ft 518 kts 82°
2026-04-25 10:56 43.03532 -93.95711 35006 ft 520 kts 82°
2026-04-25 10:57 43.04481 -93.85961 35003 ft 518 kts 81°
2026-04-25 10:57 43.05421 -93.76192 34996 ft 517 kts 82°
2026-04-25 10:58 43.06353 -93.66469 34998 ft 516 kts 82°
2026-04-25 10:58 43.07267 -93.56802 34999 ft 516 kts 82°
2026-04-25 10:59 43.08174 -93.47121 34995 ft 515 kts 82°
2026-04-25 10:59 43.09066 -93.37472 34991 ft 513 kts 82°
2026-04-25 11:00 43.09827 -93.27773 34990 ft 512 kts 85°
2026-04-25 11:00 43.10422 -93.18044 34999 ft 512 kts 86°
2026-04-25 11:01 43.11000 -93.08320 35012 ft 512 kts 86°
2026-04-25 11:01 43.11574 -92.98635 35006 ft 510 kts 86°
2026-04-25 11:02 43.12141 -92.88978 35023 ft 510 kts 86°
2026-04-25 11:02 43.12698 -92.79342 35027 ft 509 kts 86°
2026-04-25 11:03 43.13251 -92.69689 35020 ft 509 kts 86°
2026-04-25 11:03 43.13789 -92.60094 35015 ft 509 kts 86°
2026-04-25 11:04 43.14321 -92.50481 35013 ft 508 kts 86°
2026-04-25 11:04 43.14845 -92.40861 35020 ft 508 kts 86°
2026-04-25 11:05 43.15368 -92.31158 35017 ft 508 kts 87°
2026-04-25 11:05 43.15876 -92.21538 35026 ft 507 kts 86°
2026-04-25 11:06 43.16375 -92.11929 35021 ft 506 kts 87°
2026-04-25 11:06 43.16866 -92.02345 35028 ft 506 kts 87°
2026-04-25 11:07 43.17352 -91.92710 35028 ft 504 kts 87°
2026-04-25 11:07 43.17821 -91.83181 35029 ft 504 kts 87°
2026-04-25 11:08 43.18289 -91.73559 35015 ft 505 kts 86°
2026-04-25 11:08 43.18745 -91.63980 35020 ft 505 kts 86°
2026-04-25 11:09 43.19194 -91.54439 35024 ft 504 kts 87°
2026-04-25 11:09 43.19633 -91.44878 35028 ft 504 kts 86°
2026-04-25 11:10 43.20067 -91.35298 35029 ft 504 kts 86°
2026-04-25 11:10 43.20493 -91.25765 35029 ft 502 kts 87°
2026-04-25 11:11 43.20911 -91.16171 35023 ft 502 kts 87°
2026-04-25 11:11 43.21318 -91.06648 35023 ft 502 kts 87°
2026-04-25 11:12 43.21715 -90.97146 35015 ft 502 kts 87°
2026-04-25 11:12 43.22109 -90.87563 35005 ft 503 kts 87°
2026-04-25 11:13 43.22493 -90.78056 35002 ft 502 kts 88°
2026-04-25 11:13 43.22868 -90.68548 35001 ft 502 kts 87°
2026-04-25 11:14 43.23239 -90.58939 35006 ft 502 kts 88°
2026-04-25 11:14 43.23598 -90.49384 35006 ft 502 kts 87°
2026-04-25 11:15 43.23954 -90.39781 35007 ft 502 kts 88°
2026-04-25 11:15 43.24295 -90.30331 35005 ft 501 kts 88°
2026-04-25 11:16 43.24799 -90.15929 35004 ft 501 kts 88°
2026-04-25 11:16 43.25122 -90.06419 35000 ft 502 kts 89°
2026-04-25 11:17 43.25440 -89.96838 35008 ft 500 kts 89°
2026-04-25 11:17 43.25744 -89.87372 35003 ft 501 kts 88°
2026-04-25 11:18 43.26043 -89.77850 35004 ft 502 kts 88°
2026-04-25 11:18 43.26335 -89.68274 35010 ft 502 kts 88°
2026-04-25 11:19 43.26624 -89.58666 35006 ft 501 kts 88°
2026-04-25 11:19 43.26901 -89.49065 35003 ft 502 kts 88°
2026-04-25 11:20 43.27168 -89.39567 35004 ft 502 kts 88°
2026-04-25 11:20 43.27432 -89.29964 35002 ft 502 kts 89°
2026-04-25 11:21 43.27684 -89.20429 35005 ft 502 kts 89°
2026-04-25 11:21 43.27927 -89.10886 35007 ft 502 kts 89°
2026-04-25 11:22 43.28164 -89.01314 35017 ft 501 kts 89°
2026-04-25 11:22 43.28393 -88.91797 35002 ft 501 kts 89°
2026-04-25 11:23 43.28615 -88.82249 34990 ft 501 kts 89°
2026-04-25 11:23 43.28827 -88.72681 35006 ft 501 kts 89°
2026-04-25 11:24 43.29031 -88.63169 34998 ft 501 kts 89°
2026-04-25 11:24 43.29227 -88.53616 34993 ft 501 kts 89°
2026-04-25 11:25 43.29416 -88.44050 34998 ft 502 kts 89°
2026-04-25 11:25 43.29598 -88.34525 35002 ft 502 kts 90°
2026-04-25 11:26 43.29772 -88.25005 35018 ft 502 kts 90°
2026-04-25 11:26 43.29938 -88.15413 35023 ft 502 kts 90°
2026-04-25 11:27 43.30094 -88.05918 35004 ft 501 kts 90°
2026-04-25 11:27 43.30217 -87.97950 35003 ft 501 kts 90°
2026-04-25 11:28 43.30382 -87.86835 35002 ft 501 kts 90°
2026-04-25 11:28 43.30516 -87.77313 35001 ft 501 kts 90°
2026-04-25 11:29 43.30642 -87.67813 34995 ft 500 kts 90°
2026-04-25 11:29 43.30758 -87.58299 34990 ft 500 kts 90°
2026-04-25 11:30 43.30868 -87.48801 35003 ft 501 kts 90°
2026-04-25 11:30 43.30969 -87.39226 34996 ft 501 kts 90°
2026-04-25 11:31 43.31063 -87.29743 34987 ft 501 kts 91°
2026-04-25 11:31 43.31148 -87.20228 35005 ft 500 kts 91°
2026-04-25 11:32 43.31226 -87.10692 35005 ft 500 kts 91°
2026-04-25 11:32 43.31295 -87.01156 35000 ft 499 kts 91°
2026-04-25 11:33 43.31358 -86.91648 34993 ft 499 kts 91°
2026-04-25 11:33 43.31412 -86.82174 34986 ft 500 kts 91°
2026-04-25 11:34 43.31458 -86.72634 34989 ft 500 kts 91°
2026-04-25 11:34 43.31496 -86.63129 34979 ft 501 kts 91°
2026-04-25 11:35 43.31527 -86.53558 34977 ft 502 kts 91°
2026-04-25 11:35 43.31550 -86.44049 34977 ft 502 kts 91°
2026-04-25 11:36 43.31565 -86.34463 34969 ft 502 kts 92°
2026-04-25 11:36 43.31571 -86.24943 34971 ft 503 kts 92°
2026-04-25 11:37 43.31569 -86.15380 34967 ft 502 kts 92°
2026-04-25 11:37 43.31559 -86.05788 34966 ft 502 kts 92°
2026-04-25 11:38 43.31542 -85.96191 34967 ft 503 kts 92°
2026-04-25 11:38 43.31519 -85.86622 34968 ft 504 kts 93°
2026-04-25 11:39 43.31484 -85.77020 34964 ft 506 kts 93°
2026-04-25 11:39 43.31440 -85.67313 34960 ft 507 kts 93°
2026-04-25 11:40 43.31392 -85.57713 34955 ft 507 kts 93°
2026-04-25 11:40 43.31334 -85.47985 34953 ft 508 kts 93°
2026-04-25 11:41 43.31267 -85.38294 34951 ft 509 kts 93°
2026-04-25 11:41 43.31192 -85.28605 34949 ft 509 kts 94°
2026-04-25 11:42 43.31113 -85.19179 34948 ft 510 kts 94°
2026-04-25 11:42 43.31021 -85.09435 34948 ft 511 kts 95°
2026-04-25 11:43 43.30925 -84.99725 34945 ft 512 kts 95°
2026-04-25 11:43 43.30813 -84.89962 34940 ft 513 kts 95°
2026-04-25 11:44 43.30695 -84.80153 34932 ft 514 kts 95°
2026-04-25 11:44 43.30571 -84.70429 34939 ft 512 kts 95°
2026-04-25 11:45 43.30436 -84.60616 34937 ft 513 kts 94°
2026-04-25 11:45 43.30296 -84.50868 34929 ft 514 kts 94°
2026-04-25 11:46 43.30147 -84.41103 34924 ft 514 kts 94°
2026-04-25 11:46 43.29990 -84.31271 34916 ft 514 kts 95°
2026-04-25 11:47 43.29822 -84.21491 34916 ft 514 kts 95°
2026-04-25 11:47 43.29648 -84.11768 34918 ft 515 kts 95°
2026-04-25 11:48 43.29467 -84.02083 34917 ft 515 kts 95°
2026-04-25 11:48 43.29273 -83.92275 34912 ft 516 kts 95°
2026-04-25 11:49 43.29074 -83.82489 34912 ft 516 kts 95°
2026-04-25 11:49 43.28863 -83.72623 34906 ft 517 kts 95°
2026-04-25 11:50 43.28648 -83.62790 34904 ft 516 kts 95°
2026-04-25 11:50 43.28419 -83.52971 34901 ft 516 kts 95°
2026-04-25 11:51 43.28188 -83.43218 34896 ft 516 kts 95°
2026-04-25 11:51 43.27945 -83.33389 34882 ft 514 kts 96°
2026-04-25 11:52 43.27697 -83.23601 34882 ft 514 kts 96°
2026-04-25 11:52 43.27436 -83.13832 34881 ft 514 kts 96°
2026-04-25 11:53 43.27169 -83.04097 34873 ft 515 kts 96°
2026-04-25 11:53 43.26894 -82.94281 34864 ft 516 kts 96°
2026-04-25 11:54 43.26611 -82.84505 34864 ft 515 kts 96°
2026-04-25 11:55 43.26218 -82.69808 34863 ft 516 kts 92°
2026-04-25 11:55 43.26314 -82.59985 34863 ft 517 kts 91°
2026-04-25 11:56 43.26445 -82.50178 34873 ft 517 kts 91°
2026-04-25 11:56 43.26556 -82.40360 34875 ft 517 kts 91°
2026-04-25 11:57 43.26655 -82.30509 34880 ft 517 kts 92°
2026-04-25 11:57 43.26741 -82.21034 34869 ft 517 kts 92°
2026-04-25 11:58 43.26818 -82.11189 34871 ft 517 kts 92°
2026-04-25 11:58 43.26885 -82.01395 34871 ft 517 kts 92°
2026-04-25 11:59 43.26947 -81.91549 34868 ft 517 kts 92°
2026-04-25 11:59 43.26999 -81.81757 34871 ft 517 kts 92°
2026-04-25 12:00 43.27065 -81.66985 34872 ft 517 kts 92°
2026-04-25 12:01 43.27111 -81.52203 34931 ft 517 kts 92°
2026-04-25 12:01 43.27132 -81.42362 34873 ft 517 kts 92°
2026-04-25 12:02 43.27142 -81.27808 34857 ft 516 kts 92°
2026-04-25 12:02 43.27140 -81.18034 34857 ft 516 kts 92°
2026-04-25 12:03 43.27131 -81.08261 34858 ft 516 kts 92°
2026-04-25 12:03 43.27113 -80.98462 34870 ft 517 kts 92°
2026-04-25 12:04 43.27085 -80.88658 34878 ft 517 kts 92°
2026-04-25 12:04 43.27049 -80.78857 34863 ft 517 kts 92°
2026-04-25 12:05 43.27007 -80.68987 34869 ft 517 kts 92°
2026-04-25 12:05 43.26955 -80.59152 34872 ft 517 kts 91°
2026-04-25 12:06 43.26894 -80.49333 34872 ft 516 kts 91°
2026-04-25 12:06 43.26825 -80.39499 34876 ft 516 kts 91°
2026-04-25 12:07 43.26749 -80.29696 34868 ft 515 kts 92°
2026-04-25 12:07 43.26661 -80.20034 34870 ft 514 kts 92°
2026-04-25 12:08 43.26569 -80.10242 34864 ft 514 kts 92°
2026-04-25 12:08 43.26470 -80.00493 34871 ft 513 kts 92°
2026-04-25 12:09 43.26359 -79.90724 34873 ft 514 kts 92°
2026-04-25 12:09 43.26240 -79.81010 34871 ft 513 kts 91°
2026-04-25 12:10 43.26114 -79.71233 34869 ft 514 kts 92°
2026-04-25 12:10 43.25979 -79.61430 34878 ft 515 kts 91°
2026-04-25 12:11 43.25837 -79.51693 34870 ft 514 kts 91°
2026-04-25 12:11 43.25685 -79.41896 34869 ft 515 kts 91°
2026-04-25 12:12 43.25529 -79.32184 34862 ft 514 kts 92°
2026-04-25 12:12 43.25360 -79.22384 34853 ft 514 kts 92°
2026-04-25 12:13 43.25182 -79.12670 34849 ft 514 kts 92°
2026-04-25 12:13 43.24995 -79.02863 34853 ft 515 kts 92°
2026-04-25 12:14 43.24805 -78.93110 34845 ft 514 kts 91°
2026-04-25 12:14 43.24603 -78.83324 34849 ft 514 kts 92°
2026-04-25 12:15 43.24392 -78.73544 34842 ft 514 kts 92°
2026-04-25 12:15 43.24171 -78.63715 34856 ft 515 kts 91°
2026-04-25 12:16 43.23946 -78.53930 34856 ft 516 kts 91°
2026-04-25 12:16 43.23708 -78.44125 34859 ft 515 kts 91°
2026-04-25 12:17 43.23466 -78.34348 34860 ft 515 kts 92°
2026-04-25 12:17 43.23214 -78.24572 34867 ft 516 kts 92°
2026-04-25 12:18 43.22953 -78.14735 34870 ft 516 kts 92°
2026-04-25 12:18 43.22685 -78.04935 34886 ft 517 kts 92°
2026-04-25 12:19 43.22263 -77.90216 34890 ft 516 kts 92°
2026-04-25 12:20 43.21973 -77.80434 34892 ft 517 kts 92°
2026-04-25 12:20 43.21677 -77.70649 34900 ft 516 kts 91°
2026-04-25 12:21 43.21367 -77.60824 34903 ft 516 kts 91°
2026-04-25 12:21 43.21054 -77.51020 34909 ft 517 kts 91°
2026-04-25 12:22 43.20732 -77.41222 34906 ft 519 kts 91°
2026-04-25 12:22 43.20395 -77.31354 34914 ft 519 kts 92°
2026-04-25 12:23 43.20054 -77.21491 34864 ft 520 kts 92°
2026-04-25 12:23 43.19702 -77.11649 34913 ft 520 kts 91°
2026-04-25 12:24 43.19341 -77.01787 34920 ft 520 kts 91°
2026-04-25 12:24 43.18975 -76.91928 34925 ft 521 kts 91°
2026-04-25 12:25 43.18598 -76.82089 34956 ft 520 kts 91°
2026-04-25 12:25 43.18213 -76.72225 34919 ft 521 kts 91°
2026-04-25 12:26 43.17815 -76.62305 34915 ft 521 kts 91°
2026-04-25 12:26 43.17415 -76.52453 34928 ft 522 kts 91°
2026-04-25 12:27 43.17001 -76.42559 34926 ft 521 kts 90°
2026-04-25 12:27 43.16581 -76.32709 34939 ft 521 kts 91°
2026-04-25 12:28 43.16246 -76.22820 34942 ft 519 kts 87°
2026-04-25 12:28 43.16614 -76.13045 34951 ft 515 kts 80°
2026-04-25 12:29 43.17436 -76.03336 34950 ft 513 kts 79°
2026-04-25 12:29 43.18263 -75.93671 34954 ft 514 kts 79°
2026-04-25 12:30 43.19070 -75.83997 34963 ft 514 kts 79°
2026-04-25 12:30 43.19864 -75.74253 34970 ft 514 kts 78°
2026-04-25 12:31 43.20639 -75.64562 34973 ft 514 kts 79°
2026-04-25 12:31 43.21412 -75.54810 34990 ft 514 kts 78°
2026-04-25 12:32 43.22166 -75.45159 34994 ft 513 kts 78°
2026-04-25 12:32 43.22919 -75.35445 35006 ft 513 kts 78°
2026-04-25 12:33 43.23660 -75.25766 35003 ft 513 kts 79°
2026-04-25 12:33 43.24400 -75.16033 34999 ft 513 kts 79°
2026-04-25 12:34 43.25120 -75.06370 34997 ft 513 kts 78°
2026-04-25 12:34 43.25843 -74.96620 34992 ft 514 kts 78°
2026-04-25 12:35 43.26551 -74.86939 34984 ft 513 kts 78°
2026-04-25 12:35 43.27256 -74.77179 34976 ft 513 kts 78°
2026-04-25 12:36 43.27950 -74.67466 34986 ft 514 kts 78°
2026-04-25 12:36 43.28632 -74.57787 34995 ft 513 kts 78°
2026-04-25 12:37 43.29310 -74.48054 34991 ft 513 kts 78°
2026-04-25 12:37 43.29975 -74.38378 35006 ft 512 kts 78°
2026-04-25 12:38 43.30636 -74.28674 35008 ft 513 kts 78°
2026-04-25 12:38 43.31288 -74.18940 35020 ft 512 kts 78°
2026-04-25 12:39 43.31930 -74.09261 35024 ft 512 kts 78°
2026-04-25 12:39 43.32565 -73.99530 35018 ft 512 kts 78°
2026-04-25 12:40 43.33195 -73.89775 35027 ft 512 kts 78°
2026-04-25 12:40 43.33816 -73.80035 35046 ft 513 kts 77°
2026-04-25 12:41 43.34424 -73.70312 35062 ft 511 kts 77°
2026-04-25 12:41 43.35026 -73.60635 35067 ft 511 kts 77°
2026-04-25 12:42 43.35621 -73.50893 35071 ft 511 kts 77°
2026-04-25 12:42 43.36204 -73.41202 35069 ft 512 kts 77°
2026-04-25 12:43 43.36779 -73.31509 35062 ft 511 kts 78°
2026-04-25 12:43 43.37603 -73.17399 35060 ft 511 kts 78°
2026-04-25 12:44 43.38155 -73.07696 35058 ft 509 kts 77°
2026-04-25 12:45 43.38977 -72.93162 35054 ft 511 kts 77°
2026-04-25 12:45 43.39773 -72.78636 34959 ft 510 kts 77°
2026-04-25 12:46 43.40295 -72.68945 35039 ft 509 kts 77°
2026-04-25 12:46 43.40807 -72.59267 35063 ft 508 kts 76°
2026-04-25 12:47 43.41315 -72.49541 35069 ft 508 kts 76°
2026-04-25 12:47 43.41813 -72.39860 35077 ft 510 kts 77°
2026-04-25 12:48 43.42300 -72.30162 35069 ft 509 kts 77°
2026-04-25 12:48 43.42782 -72.20463 35070 ft 509 kts 77°
2026-04-25 12:49 43.43256 -72.10733 35069 ft 508 kts 77°
2026-04-25 12:49 43.43720 -72.01033 35058 ft 509 kts 77°
2026-04-25 12:50 43.44176 -71.91373 35050 ft 509 kts 77°
2026-04-25 12:50 43.44626 -71.81622 35049 ft 509 kts 77°
2026-04-25 12:51 43.45061 -71.71954 35055 ft 508 kts 76°
2026-04-25 12:51 43.45493 -71.62283 35060 ft 508 kts 76°
2026-04-25 12:52 43.45914 -71.52589 35082 ft 507 kts 76°
2026-04-25 12:52 43.46327 -71.42969 35088 ft 509 kts 76°
2026-04-25 12:53 43.46737 -71.33227 35088 ft 508 kts 77°
2026-04-25 12:53 43.47133 -71.23571 35086 ft 509 kts 76°
2026-04-25 12:54 43.47525 -71.13838 35086 ft 510 kts 77°
2026-04-25 12:54 43.47907 -71.04112 35082 ft 510 kts 76°
2026-04-25 12:55 43.48222 -70.96015 35077 ft 511 kts 77°
2026-04-25 12:55 43.48651 -70.84647 35086 ft 511 kts 77°
2026-04-25 12:56 43.49008 -70.74922 35094 ft 510 kts 77°
2026-04-25 12:56 43.49359 -70.65128 35095 ft 509 kts 77°
2026-04-25 12:57 43.49699 -70.55441 35096 ft 510 kts 77°
2026-04-25 12:57 43.50034 -70.45674 35098 ft 509 kts 77°
2026-04-25 12:58 43.50363 -70.35898 35103 ft 511 kts 77°
2026-04-25 12:58 43.50678 -70.26136 35097 ft 510 kts 77°
2026-04-25 12:59 43.50983 -70.16393 35090 ft 509 kts 77°
2026-04-25 12:59 43.51285 -70.06687 35088 ft 510 kts 77°
2026-04-25 13:00 43.51530 -69.98570 35087 ft 511 kts 77°
2026-04-25 13:00 43.51861 -69.87183 35076 ft 511 kts 78°
2026-04-25 13:01 43.52139 -69.77454 35079 ft 512 kts 78°
2026-04-25 13:01 43.52405 -69.67660 35078 ft 510 kts 78°
2026-04-25 13:02 43.52663 -69.57983 35072 ft 510 kts 78°
2026-04-25 13:02 43.52909 -69.48280 35073 ft 507 kts 78°
2026-04-25 13:03 43.53155 -69.38554 35072 ft 509 kts 78°
2026-04-25 13:03 43.53390 -69.28816 35070 ft 511 kts 79°
2026-04-25 13:04 43.53615 -69.19057 35074 ft 509 kts 79°
2026-04-25 13:04 43.53830 -69.09380 35062 ft 509 kts 79°
2026-04-25 13:05 43.54038 -68.99656 35071 ft 509 kts 79°
2026-04-25 13:05 43.54238 -68.89964 35068 ft 506 kts 79°
2026-04-25 13:06 43.54431 -68.80326 35075 ft 508 kts 80°
2026-04-25 13:06 43.54613 -68.70623 35070 ft 505 kts 80°
2026-04-25 13:07 43.54788 -68.60972 35066 ft 505 kts 79°
2026-04-25 13:07 43.54958 -68.51364 35068 ft 506 kts 80°
2026-04-25 13:08 43.55116 -68.41692 35067 ft 504 kts 80°
2026-04-25 13:08 43.55264 -68.32114 35068 ft 504 kts 81°
2026-04-25 13:09 43.55402 -68.22523 35063 ft 501 kts 81°
2026-04-25 13:09 43.55540 -68.12929 35065 ft 502 kts 82°
2026-04-25 13:10 43.55664 -68.03366 35064 ft 502 kts 82°
2026-04-25 13:10 43.55780 -67.93773 35062 ft 501 kts 82°
2026-04-25 13:11 43.55888 -67.84224 35041 ft 500 kts 82°
2026-04-25 13:11 43.55992 -67.74673 35031 ft 501 kts 82°
2026-04-25 13:12 43.56083 -67.65102 35038 ft 500 kts 82°
2026-04-25 13:12 43.56124 -67.60362 35167 ft 499 kts 82°
2026-04-25 13:12 43.56151 -67.57175 35120 ft 497 kts 82°
2026-04-25 13:13 43.56243 -67.46107 35064 ft 497 kts 82°
2026-04-25 13:13 43.56311 -67.36622 35053 ft 495 kts 82°
2026-04-25 13:14 43.56374 -67.27145 35045 ft 495 kts 83°
2026-04-25 13:14 43.56425 -67.17699 35041 ft 495 kts 83°
2026-04-25 13:15 43.56468 -67.08274 35039 ft 495 kts 83°
2026-04-25 13:15 43.56431 -66.98802 35036 ft 498 kts 86°
2026-04-25 13:16 43.55985 -66.89271 35031 ft 497 kts 88°
2026-04-25 13:16 43.55416 -66.78384 35026 ft 495 kts 88°
2026-04-25 13:17 43.54921 -66.68962 35021 ft 496 kts 88°
2026-04-25 13:17 43.54422 -66.59526 35020 ft 495 kts 88°
2026-04-25 13:18 43.53918 -66.50124 35020 ft 495 kts 88°
2026-04-25 13:18 43.53405 -66.40713 35017 ft 493 kts 89°
2026-04-25 13:19 43.52884 -66.31313 35010 ft 493 kts 89°
2026-04-25 13:19 43.52538 -66.25120 35013 ft 492 kts 89°
2026-04-25 13:20 43.51829 -66.12616 35008 ft 491 kts 90°
2026-04-25 13:20 43.51292 -66.03311 35003 ft 491 kts 89°
2026-04-25 13:21 43.50745 -65.93964 35003 ft 491 kts 90°
2026-04-25 13:21 43.50188 -65.84617 35001 ft 490 kts 90°
2026-04-25 13:22 43.49628 -65.75286 34997 ft 489 kts 90°
2026-04-25 13:23 43.48775 -65.61369 34992 ft 488 kts 90°
2026-04-25 13:23 43.48199 -65.52116 34990 ft 487 kts 90°
2026-04-25 13:24 43.47616 -65.42872 34985 ft 487 kts 90°
2026-04-25 13:24 43.47026 -65.33647 34983 ft 486 kts 91°
2026-04-25 13:25 43.46428 -65.24380 34975 ft 486 kts 91°
2026-04-25 13:25 43.45823 -65.15158 34975 ft 486 kts 91°
2026-04-25 13:26 43.45212 -65.05951 34967 ft 485 kts 91°
2026-04-25 13:26 43.44593 -64.96745 34967 ft 484 kts 91°
2026-04-25 13:27 43.43969 -64.87584 34964 ft 483 kts 91°
2026-04-25 13:27 43.43337 -64.78400 34965 ft 483 kts 91°
2026-04-25 13:28 43.42701 -64.69257 34960 ft 482 kts 91°
2026-04-25 13:28 43.42062 -64.60160 34954 ft 482 kts 91°
2026-04-25 13:29 43.41409 -64.51009 34953 ft 481 kts 91°
2026-04-25 13:29 43.40750 -64.41867 34947 ft 481 kts 91°
2026-04-25 13:30 43.39755 -64.28228 34945 ft 481 kts 92°
2026-04-25 13:31 43.38739 -64.14555 34942 ft 480 kts 92°
2026-04-25 13:31 43.38057 -64.05477 34939 ft 478 kts 92°
2026-04-25 13:32 43.37368 -63.96453 34945 ft 478 kts 92°
2026-04-25 13:32 43.36672 -63.87399 34939 ft 478 kts 92°
2026-04-25 13:33 43.35969 -63.78342 34937 ft 478 kts 92°
2026-04-25 13:33 43.35257 -63.69274 34926 ft 477 kts 92°
2026-04-25 13:34 43.34541 -63.60236 34923 ft 477 kts 92°
2026-04-25 13:34 43.33821 -63.51263 34918 ft 477 kts 92°
2026-04-25 13:35 43.33094 -63.42272 34914 ft 477 kts 92°
2026-04-25 13:35 43.32356 -63.33242 34909 ft 477 kts 92°
2026-04-25 13:36 43.31610 -63.24188 34907 ft 476 kts 92°
2026-04-25 13:36 43.30864 -63.15242 34894 ft 476 kts 92°
2026-04-25 13:37 43.30105 -63.06217 34891 ft 476 kts 92°
2026-04-25 13:37 43.29344 -62.97258 34892 ft 476 kts 92°
2026-04-25 13:38 43.28572 -62.88256 34870 ft 476 kts 92°
2026-04-25 13:38 43.27792 -62.79250 34876 ft 476 kts 92°
2026-04-25 13:39 43.27009 -62.70287 34867 ft 476 kts 92°
2026-04-25 13:39 43.26218 -62.61310 34872 ft 475 kts 92°
2026-04-25 13:40 43.25422 -62.52359 34856 ft 475 kts 92°
2026-04-25 13:40 43.24617 -62.43393 34876 ft 475 kts 93°
2026-04-25 13:41 43.23806 -62.34439 34846 ft 475 kts 94°
2026-04-25 13:41 43.22986 -62.25462 34870 ft 476 kts 94°
2026-04-25 13:42 43.22160 -62.16492 34853 ft 476 kts 94°
2026-04-25 13:42 43.21328 -62.07544 34850 ft 475 kts 94°
2026-04-25 13:43 43.20486 -61.98578 34844 ft 475 kts 94°
2026-04-25 13:43 43.19643 -61.89671 34852 ft 475 kts 94°
2026-04-25 13:44 43.18789 -61.80722 34823 ft 475 kts 94°
2026-04-25 13:44 43.17928 -61.71772 34832 ft 476 kts 94°
2026-04-25 13:45 43.17058 -61.62800 34812 ft 476 kts 94°
2026-04-25 13:45 43.16181 -61.53825 34804 ft 476 kts 94°
2026-04-25 13:46 43.15301 -61.44905 34807 ft 476 kts 94°
2026-04-25 13:46 43.14408 -61.35930 34793 ft 476 kts 94°
2026-04-25 13:47 43.13514 -61.27004 34796 ft 477 kts 94°
2026-04-25 13:47 43.12607 -61.18018 34798 ft 478 kts 95°
2026-04-25 13:48 43.11692 -61.09054 34798 ft 477 kts 94°
2026-04-25 13:48 43.10773 -61.00113 34805 ft 476 kts 94°
2026-04-25 13:49 43.09852 -60.91215 34793 ft 476 kts 94°
2026-04-25 13:49 43.08917 -60.82238 34768 ft 476 kts 94°
2026-04-25 13:50 43.07982 -60.73334 34778 ft 477 kts 95°
2026-04-25 13:50 43.07034 -60.64394 34778 ft 478 kts 95°
2026-04-25 13:51 43.06080 -60.55459 34768 ft 477 kts 95°
2026-04-25 13:51 43.05120 -60.46525 34757 ft 476 kts 95°
2026-04-25 13:52 43.04148 -60.37558 34755 ft 476 kts 95°
2026-04-25 13:52 43.03182 -60.28709 34753 ft 476 kts 95°
2026-04-25 13:53 43.02201 -60.19794 34767 ft 476 kts 95°
2026-04-25 13:53 43.01212 -60.10875 34743 ft 477 kts 95°
2026-04-25 13:54 43.00412 -60.01907 34740 ft 475 kts 91°
2026-04-25 13:54 43.00291 -59.92941 34753 ft 472 kts 84°
2026-04-25 13:55 43.00647 -59.84080 34750 ft 471 kts 83°
2026-04-25 13:55 43.01031 -59.75167 34743 ft 470 kts 83°
2026-04-25 13:56 43.01401 -59.66260 34745 ft 471 kts 83°
2026-04-25 13:56 43.01757 -59.57394 34742 ft 471 kts 83°
2026-04-25 13:57 43.02105 -59.48508 34737 ft 471 kts 83°
2026-04-25 13:57 43.02446 -59.39624 34726 ft 470 kts 83°
2026-04-25 13:58 43.02781 -59.30728 34713 ft 471 kts 84°
2026-04-25 13:58 43.03110 -59.21802 34714 ft 471 kts 84°
2026-04-25 13:59 43.03430 -59.12904 34707 ft 471 kts 84°
2026-04-25 13:59 43.03746 -59.03944 34711 ft 472 kts 84°
2026-04-25 14:00 43.03950 -58.98035 34706 ft 472 kts 84°
2026-04-25 14:00 43.04353 -58.86105 34690 ft 472 kts 84°
2026-04-25 14:01 43.04645 -58.77231 34698 ft 472 kts 84°
2026-04-25 14:01 43.04934 -58.68251 34691 ft 472 kts 84°
2026-04-25 14:02 43.05213 -58.59360 34686 ft 472 kts 84°
2026-04-25 14:02 43.05486 -58.50403 34680 ft 473 kts 84°
2026-04-25 14:03 43.05753 -58.41425 34677 ft 473 kts 84°
2026-04-25 14:03 43.06012 -58.32510 34667 ft 473 kts 85°
2026-04-25 14:04 43.06263 -58.23586 34670 ft 473 kts 85°
2026-04-25 14:04 43.06509 -58.14599 34669 ft 473 kts 85°
2026-04-25 14:05 43.06747 -58.05661 34647 ft 474 kts 85°
2026-04-25 14:05 43.06978 -57.96656 34654 ft 475 kts 85°
2026-04-25 14:06 43.07379 -57.87673 34640 ft 473 kts 81°
2026-04-25 14:06 43.08423 -57.78882 34647 ft 471 kts 75°
2026-04-25 14:07 43.09772 -57.70104 34642 ft 472 kts 75°
2026-04-25 14:07 43.11123 -57.61324 34633 ft 472 kts 75°
2026-04-25 14:08 43.12450 -57.52601 34629 ft 472 kts 75°
2026-04-25 14:08 43.13777 -57.43817 34632 ft 472 kts 75°
2026-04-25 14:09 43.15092 -57.35057 34630 ft 472 kts 75°
2026-04-25 14:09 43.16404 -57.26256 34613 ft 473 kts 76°
2026-04-25 14:10 43.17715 -57.17417 34610 ft 473 kts 76°
2026-04-25 14:10 43.19004 -57.08671 34610 ft 474 kts 76°
2026-04-25 14:11 43.20303 -56.99817 34597 ft 474 kts 76°
2026-04-25 14:11 43.21588 -56.91009 34603 ft 474 kts 76°
2026-04-25 14:12 43.22871 -56.82155 34599 ft 474 kts 76°
2026-04-25 14:12 43.24145 -56.73313 34590 ft 475 kts 76°
2026-04-25 14:13 43.25415 -56.64456 34591 ft 475 kts 76°
2026-04-25 14:13 43.26673 -56.55623 34586 ft 475 kts 76°
2026-04-25 14:14 43.27932 -56.46730 34574 ft 475 kts 76°
2026-04-25 14:14 43.29188 -56.37810 34581 ft 476 kts 76°
2026-04-25 14:15 43.30426 -56.28968 34577 ft 476 kts 76°
2026-04-25 14:15 43.31663 -56.20089 34564 ft 476 kts 77°
2026-04-25 14:16 43.32900 -56.11138 34566 ft 476 kts 76°
2026-04-25 14:16 43.34124 -56.02242 34553 ft 476 kts 76°
2026-04-25 14:17 43.35338 -55.93343 34549 ft 476 kts 76°
2026-04-25 14:17 43.36544 -55.84468 34541 ft 477 kts 76°
2026-04-25 14:18 43.37752 -55.75525 34542 ft 477 kts 76°
2026-04-25 14:18 43.38956 -55.66560 34582 ft 481 kts 76°
2026-04-25 14:18 43.39558 -55.62058 34762 ft 482 kts 77°
2026-04-25 14:19 43.40165 -55.57503 34981 ft 481 kts 77°
2026-04-25 14:19 43.40765 -55.52982 35202 ft 481 kts 77°
2026-04-25 14:19 43.41354 -55.48530 35397 ft 481 kts 77°
2026-04-25 14:19 43.41951 -55.44004 35582 ft 481 kts 77°
2026-04-25 14:20 43.42548 -55.39466 35757 ft 482 kts 77°
2026-04-25 14:20 43.43724 -55.30463 36099 ft 482 kts 78°
2026-04-25 14:20 43.44316 -55.25923 36250 ft 482 kts 78°
2026-04-25 14:21 43.44903 -55.21398 36385 ft 483 kts 78°
2026-04-25 14:21 43.45487 -55.16886 36495 ft 485 kts 78°
2026-04-25 14:21 43.46075 -55.12314 36503 ft 486 kts 78°
2026-04-25 14:22 43.47240 -55.03237 36509 ft 485 kts 78°
2026-04-25 14:22 43.48405 -54.94077 36504 ft 485 kts 78°
2026-04-25 14:23 43.49562 -54.84945 36494 ft 485 kts 78°
2026-04-25 14:23 43.50709 -54.75811 36496 ft 486 kts 78°
2026-04-25 14:24 43.51844 -54.66730 36497 ft 486 kts 78°
2026-04-25 14:24 43.52984 -54.57546 36494 ft 487 kts 78°
2026-04-25 14:25 43.54111 -54.48398 36479 ft 487 kts 78°
2026-04-25 14:25 43.55233 -54.39235 36474 ft 487 kts 78°
2026-04-25 14:26 43.56352 -54.30027 36470 ft 488 kts 79°
2026-04-25 14:26 43.57457 -54.20869 36462 ft 488 kts 79°
2026-04-25 14:27 43.58566 -54.11612 36464 ft 489 kts 79°
2026-04-25 14:27 43.59659 -54.02431 36462 ft 489 kts 79°
2026-04-25 14:28 43.60751 -53.93192 36464 ft 489 kts 79°
2026-04-25 14:28 43.61831 -53.83985 36466 ft 490 kts 79°
2026-04-25 14:29 43.62912 -53.74695 36457 ft 490 kts 79°
2026-04-25 14:29 43.63979 -53.65482 36448 ft 490 kts 79°
2026-04-25 14:30 43.65044 -53.56189 36449 ft 490 kts 79°
2026-04-25 14:30 43.66619 -53.42341 36439 ft 490 kts 79°
2026-04-25 14:31 43.67667 -53.33044 36433 ft 491 kts 80°
2026-04-25 14:31 43.68701 -53.23788 36431 ft 491 kts 80°
2026-04-25 14:32 43.69732 -53.14502 36424 ft 491 kts 80°
2026-04-25 14:32 43.70757 -53.05191 36419 ft 490 kts 80°
2026-04-25 14:33 43.71767 -52.95954 36414 ft 491 kts 80°
2026-04-25 14:33 43.72778 -52.86621 36409 ft 491 kts 80°
2026-04-25 14:34 43.73775 -52.77348 36409 ft 492 kts 80°
2026-04-25 14:34 43.74775 -52.67979 36408 ft 493 kts 80°
2026-04-25 14:35 43.75764 -52.58638 36402 ft 493 kts 81°
2026-04-25 14:35 43.76741 -52.49336 36402 ft 493 kts 81°
2026-04-25 14:36 43.77714 -52.39993 36405 ft 494 kts 81°
2026-04-25 14:36 43.78684 -52.30614 36397 ft 494 kts 81°
2026-04-25 14:37 43.79647 -52.21208 36393 ft 494 kts 82°
2026-04-25 14:37 43.80603 -52.11805 36393 ft 495 kts 82°
2026-04-25 14:38 43.81548 -52.02421 36376 ft 495 kts 82°
2026-04-25 14:38 43.82484 -51.93050 36369 ft 495 kts 82°
2026-04-25 14:39 43.83417 -51.83629 36360 ft 495 kts 82°
2026-04-25 14:39 43.84343 -51.74206 36377 ft 497 kts 82°
2026-04-25 14:40 43.85264 -51.64746 36371 ft 497 kts 82°
2026-04-25 14:40 43.86176 -51.55300 36378 ft 498 kts 82°
2026-04-25 14:41 43.87078 -51.45855 36376 ft 498 kts 82°
2026-04-25 14:41 43.87979 -51.36361 36364 ft 497 kts 82°
2026-04-25 14:42 43.88568 -51.30107 36373 ft 498 kts 83°
2026-04-25 14:42 43.89751 -51.17404 36370 ft 498 kts 83°
2026-04-25 14:43 43.90627 -51.07908 36364 ft 499 kts 83°
2026-04-25 14:43 43.91499 -50.98367 36357 ft 499 kts 83°
2026-04-25 14:44 43.92360 -50.88854 36356 ft 500 kts 83°
2026-04-25 14:44 43.93209 -50.79383 36362 ft 501 kts 83°
2026-04-25 14:45 43.94059 -50.69814 36363 ft 500 kts 83°
2026-04-25 14:45 43.94898 -50.60269 36362 ft 500 kts 83°
2026-04-25 14:46 43.95730 -50.50713 36361 ft 501 kts 83°
2026-04-25 14:46 43.96555 -50.41132 36351 ft 500 kts 83°
2026-04-25 14:47 43.97100 -50.34760 36347 ft 501 kts 84°
2026-04-25 14:47 43.98178 -50.22015 36354 ft 502 kts 84°
2026-04-25 14:48 43.98980 -50.12391 36354 ft 503 kts 84°
2026-04-25 14:48 43.99659 -50.02818 36353 ft 502 kts 88°
2026-04-25 14:49 43.99639 -49.93145 36355 ft 501 kts 95°
2026-04-25 14:49 43.99107 -49.83531 36366 ft 501 kts 96°
2026-04-25 14:50 43.98541 -49.73966 36375 ft 501 kts 96°
2026-04-25 14:50 43.97977 -49.64377 36385 ft 501 kts 96°
2026-04-25 14:51 43.97410 -49.54763 36380 ft 502 kts 96°
2026-04-25 14:51 43.96834 -49.45106 36382 ft 503 kts 96°
2026-04-25 14:52 43.96254 -49.35503 36382 ft 504 kts 96°
2026-04-25 14:52 43.95860 -49.29034 36390 ft 504 kts 97°
2026-04-25 14:53 43.95063 -49.16169 36393 ft 504 kts 97°
2026-04-25 14:53 43.94456 -49.06536 36396 ft 504 kts 97°
2026-04-25 14:54 43.93841 -48.96907 36398 ft 505 kts 97°
2026-04-25 14:54 43.93213 -48.87211 36397 ft 505 kts 97°
2026-04-25 14:55 43.92581 -48.77571 36400 ft 504 kts 97°
2026-04-25 14:55 43.91940 -48.67894 36421 ft 505 kts 97°
2026-04-25 14:56 43.91293 -48.58264 36431 ft 506 kts 98°
2026-04-25 14:56 43.90633 -48.48576 36425 ft 506 kts 98°
2026-04-25 14:57 43.89966 -48.38896 36432 ft 507 kts 98°
2026-04-25 14:57 43.89288 -48.29184 36423 ft 506 kts 98°
2026-04-25 14:58 43.88607 -48.19560 36440 ft 506 kts 98°
2026-04-25 14:58 43.87912 -48.09849 36429 ft 506 kts 99°
2026-04-25 14:59 43.87209 -48.00137 36431 ft 506 kts 99°
2026-04-25 14:59 43.86500 -47.90463 36440 ft 506 kts 99°
2026-04-25 15:00 43.85787 -47.80838 36448 ft 506 kts 99°
2026-04-25 15:00 43.85061 -47.71148 36457 ft 506 kts 99°
2026-04-25 15:01 43.84331 -47.61519 36460 ft 507 kts 99°
2026-04-25 15:01 43.83587 -47.51818 36470 ft 508 kts 99°
2026-04-25 15:02 43.82836 -47.42152 36468 ft 508 kts 99°
2026-04-25 15:02 43.82077 -47.32480 36464 ft 508 kts 100°
2026-04-25 15:03 43.81310 -47.22776 36491 ft 508 kts 101°
2026-04-25 15:03 43.80532 -47.13074 36483 ft 507 kts 101°
2026-04-25 15:04 43.79760 -47.03557 36488 ft 508 kts 101°
2026-04-25 15:04 43.78973 -46.93949 36488 ft 508 kts 101°
2026-04-25 15:05 43.78171 -46.84252 36499 ft 508 kts 101°
2026-04-25 15:06 43.76951 -46.69714 36502 ft 509 kts 101°
2026-04-25 15:06 43.76131 -46.60063 36496 ft 509 kts 101°
2026-04-25 15:07 43.75299 -46.50371 36489 ft 509 kts 101°
2026-04-25 15:07 43.74462 -46.40706 36506 ft 509 kts 101°
2026-04-25 15:08 43.73616 -46.31031 36502 ft 509 kts 102°
2026-04-25 15:08 43.72761 -46.21346 36511 ft 510 kts 102°
2026-04-25 15:09 43.71894 -46.11630 36506 ft 510 kts 102°
2026-04-25 15:09 43.70578 -45.97073 36514 ft 512 kts 102°
2026-04-25 15:10 43.69690 -45.87333 36537 ft 511 kts 102°
2026-04-25 15:11 43.68345 -45.72823 36527 ft 512 kts 102°
2026-04-25 15:11 43.67440 -45.63140 36527 ft 511 kts 103°
2026-04-25 15:12 43.66056 -45.48555 36539 ft 512 kts 102°
2026-04-25 15:12 43.65437 -45.42072 36526 ft 511 kts 102°
2026-04-25 15:13 43.63722 -45.24325 36526 ft 510 kts 103°
2026-04-25 15:14 43.62778 -45.14683 36539 ft 510 kts 104°
2026-04-25 15:14 43.61820 -45.05018 36529 ft 510 kts 104°
2026-04-25 15:15 43.60858 -44.95368 36530 ft 510 kts 104°
2026-04-25 15:15 43.59889 -44.85744 36542 ft 511 kts 104°
2026-04-25 15:16 43.58906 -44.76080 36557 ft 512 kts 103°
2026-04-25 15:16 43.57415 -44.61521 36566 ft 512 kts 103°
2026-04-25 15:17 43.55909 -44.47020 36564 ft 512 kts 104°
2026-04-25 15:18 43.54888 -44.37306 36551 ft 513 kts 104°
2026-04-25 15:18 43.53356 -44.22844 36556 ft 511 kts 104°
2026-04-25 15:19 43.52667 -44.16422 36579 ft 512 kts 105°
2026-04-25 15:19 43.51271 -44.03494 36581 ft 511 kts 104°
2026-04-25 15:20 43.50224 -43.93885 36576 ft 512 kts 105°
2026-04-25 15:20 43.49168 -43.84255 36569 ft 511 kts 105°
2026-04-25 15:21 43.48101 -43.74623 36383 ft 512 kts 105°
2026-04-25 15:21 43.47562 -43.69784 36508 ft 512 kts 105°
2026-04-25 15:21 43.47021 -43.64955 36541 ft 513 kts 105°
2026-04-25 15:22 43.45931 -43.55273 36557 ft 512 kts 105°
2026-04-25 15:22 43.44839 -43.45623 36562 ft 511 kts 105°
2026-04-25 15:23 43.43739 -43.36004 36571 ft 512 kts 105°
2026-04-25 15:23 43.42637 -43.26403 36582 ft 511 kts 106°
2026-04-25 15:24 43.41525 -43.16817 36591 ft 510 kts 106°
2026-04-25 15:24 43.40774 -43.10389 36597 ft 511 kts 106°
2026-04-25 15:25 43.39268 -42.97582 36607 ft 510 kts 106°
2026-04-25 15:25 43.38127 -42.87982 36603 ft 510 kts 106°
2026-04-25 15:26 43.36984 -42.78410 36600 ft 511 kts 106°
2026-04-25 15:26 43.35831 -42.68826 36609 ft 509 kts 106°
2026-04-25 15:27 43.34676 -42.59312 36605 ft 510 kts 106°
2026-04-25 15:28 43.32919 -42.44950 36610 ft 510 kts 106°
2026-04-25 15:28 43.31737 -42.35369 36629 ft 509 kts 106°
2026-04-25 15:29 43.30548 -42.25828 36621 ft 510 kts 107°
2026-04-25 15:29 43.29362 -42.16347 36609 ft 509 kts 106°
2026-04-25 15:30 43.28154 -42.06778 36595 ft 508 kts 107°
2026-04-25 15:30 43.26947 -41.97248 36589 ft 507 kts 107°
2026-04-25 15:31 43.25738 -41.87804 36601 ft 506 kts 107°
2026-04-25 15:31 43.24513 -41.78284 36605 ft 507 kts 107°
2026-04-25 15:32 43.23283 -41.68800 36600 ft 506 kts 107°
2026-04-25 15:32 43.22050 -41.59352 36599 ft 505 kts 107°
2026-04-25 15:33 43.20187 -41.45209 36603 ft 506 kts 107°
2026-04-25 15:33 43.18942 -41.35808 36588 ft 504 kts 107°
2026-04-25 15:34 43.17685 -41.26405 36607 ft 503 kts 107°
2026-04-25 15:34 43.16846 -41.20158 36609 ft 504 kts 107°
2026-04-25 15:35 43.14514 -41.02942 36606 ft 504 kts 107°
2026-04-25 15:36 43.12588 -40.88862 36638 ft 503 kts 107°
2026-04-25 15:36 43.11317 -40.79627 36644 ft 503 kts 107°
2026-04-25 15:37 43.10009 -40.70208 36629 ft 503 kts 107°
2026-04-25 15:37 43.08706 -40.60892 36617 ft 504 kts 107°
2026-04-25 15:38 43.07380 -40.51460 36646 ft 504 kts 107°
2026-04-25 15:38 43.06061 -40.42131 36624 ft 503 kts 107°
2026-04-25 15:39 43.04724 -40.32726 36602 ft 503 kts 108°
2026-04-25 15:39 43.03392 -40.23427 36599 ft 503 kts 108°
2026-04-25 15:40 43.02494 -40.17182 36615 ft 501 kts 108°
2026-04-25 15:40 43.00810 -40.04681 36625 ft 506 kts 104°
2026-04-25 15:41 43.00293 -39.95108 36636 ft 513 kts 96°
2026-04-25 15:41 43.00549 -39.85307 36826 ft 521 kts 91°
2026-04-25 15:42 43.00771 -39.80426 37130 ft 520 kts 91°
2026-04-25 15:42 43.01000 -39.75511 37460 ft 517 kts 91°
2026-04-25 15:42 43.01215 -39.70675 37812 ft 514 kts 91°
2026-04-25 15:42 43.01427 -39.65770 38072 ft 512 kts 91°
2026-04-25 15:43 43.01626 -39.60939 38277 ft 512 kts 91°
2026-04-25 15:43 43.01818 -39.56129 38451 ft 512 kts 91°
2026-04-25 15:43 43.02012 -39.51284 38610 ft 512 kts 91°
2026-04-25 15:43 43.02202 -39.46464 38645 ft 512 kts 91°
2026-04-25 15:44 43.02578 -39.36751 38650 ft 511 kts 91°
2026-04-25 15:44 43.02939 -39.27116 38664 ft 512 kts 91°
2026-04-25 15:45 43.03296 -39.17450 38657 ft 511 kts 91°
2026-04-25 15:45 43.03529 -39.10988 38661 ft 511 kts 92°
2026-04-25 15:46 43.03986 -38.98128 38668 ft 511 kts 91°
2026-04-25 15:46 43.04314 -38.88479 38666 ft 511 kts 91°
2026-04-25 15:47 43.04639 -38.78812 38682 ft 510 kts 91°
2026-04-25 15:47 43.04955 -38.69111 38691 ft 511 kts 91°
2026-04-25 15:48 43.05262 -38.59466 38696 ft 510 kts 91°
2026-04-25 15:48 43.05559 -38.49825 38699 ft 511 kts 92°
2026-04-25 15:49 43.05851 -38.40141 38708 ft 510 kts 91°
2026-04-25 15:49 43.06132 -38.30554 38715 ft 510 kts 92°
2026-04-25 15:50 43.06408 -38.20892 38718 ft 510 kts 92°
2026-04-25 15:50 43.06673 -38.11207 38715 ft 509 kts 92°
2026-04-25 15:51 43.06844 -38.04785 38721 ft 510 kts 92°
2026-04-25 15:51 43.07181 -37.91885 38730 ft 511 kts 92°
2026-04-25 15:52 43.07423 -37.82225 38730 ft 509 kts 91°
2026-04-25 15:52 43.07655 -37.72599 38732 ft 510 kts 91°
2026-04-25 15:53 43.07882 -37.62974 38742 ft 510 kts 92°
2026-04-25 15:53 43.08100 -37.53270 38747 ft 510 kts 92°
2026-04-25 15:54 43.08308 -37.43632 38752 ft 509 kts 92°
2026-04-25 15:54 43.08509 -37.34031 38758 ft 508 kts 92°
2026-04-25 15:55 43.08703 -37.24362 38758 ft 508 kts 92°
2026-04-25 15:55 43.08886 -37.14782 38777 ft 507 kts 92°
2026-04-25 15:56 43.09059 -37.05203 38775 ft 506 kts 92°
2026-04-25 15:56 43.09228 -36.95571 38793 ft 506 kts 92°
2026-04-25 15:57 43.09386 -36.86014 38815 ft 506 kts 92°
2026-04-25 15:57 43.09540 -36.76387 38817 ft 506 kts 92°
2026-04-25 15:58 43.09683 -36.66830 38816 ft 508 kts 92°
2026-04-25 15:58 43.09819 -36.57161 38812 ft 508 kts 92°
2026-04-25 15:59 43.09948 -36.47555 38819 ft 508 kts 92°
2026-04-25 15:59 43.10066 -36.37924 38828 ft 508 kts 92°
2026-04-25 16:00 43.10139 -36.31546 38822 ft 507 kts 93°
2026-04-25 16:00 43.10282 -36.18713 38835 ft 506 kts 93°
2026-04-25 16:01 43.10377 -36.09164 38844 ft 507 kts 93°
2026-04-25 16:01 43.10465 -35.99515 38854 ft 507 kts 93°
2026-04-25 16:02 43.10543 -35.89921 38858 ft 506 kts 93°
2026-04-25 16:02 43.10615 -35.80350 38871 ft 507 kts 93°
2026-04-25 16:03 43.10677 -35.70736 38870 ft 507 kts 92°
2026-04-25 16:03 43.10732 -35.61169 38868 ft 507 kts 92°
2026-04-25 16:04 43.10779 -35.51555 38891 ft 507 kts 93°
2026-04-25 16:04 43.10818 -35.41910 38882 ft 508 kts 92°
2026-04-25 16:05 43.10852 -35.32320 38889 ft 508 kts 93°
2026-04-25 16:06 43.10883 -35.17905 38897 ft 507 kts 93°
2026-04-25 16:06 43.10894 -35.08233 38906 ft 507 kts 93°
2026-04-25 16:07 43.10897 -34.98653 38910 ft 507 kts 93°
2026-04-25 16:07 43.10890 -34.89074 38913 ft 507 kts 93°
2026-04-25 16:08 43.10878 -34.79463 38914 ft 508 kts 93°
2026-04-25 16:08 43.10856 -34.69838 38924 ft 508 kts 93°
2026-04-25 16:09 43.10828 -34.60178 38921 ft 507 kts 92°
2026-04-25 16:09 43.10791 -34.50621 38937 ft 507 kts 92°
2026-04-25 16:10 43.10746 -34.40997 38935 ft 507 kts 93°
2026-04-25 16:10 43.10693 -34.31350 38935 ft 507 kts 93°
2026-04-25 16:11 43.10633 -34.21768 38939 ft 507 kts 93°
2026-04-25 16:11 43.10564 -34.12184 38943 ft 506 kts 94°
2026-04-25 16:12 43.10484 -34.02545 38951 ft 506 kts 93°
2026-04-25 16:12 43.10399 -33.92957 38945 ft 507 kts 93°
2026-04-25 16:13 43.10307 -33.83406 38949 ft 507 kts 93°
2026-04-25 16:13 43.10204 -33.73765 38949 ft 506 kts 93°
2026-04-25 16:14 43.10095 -33.64230 38953 ft 506 kts 93°
2026-04-25 16:14 43.09978 -33.54656 38946 ft 506 kts 93°
2026-04-25 16:15 43.09853 -33.45021 38951 ft 505 kts 92°
2026-04-25 16:15 43.09720 -33.35471 38958 ft 505 kts 93°
2026-04-25 16:16 43.09581 -33.25888 38963 ft 505 kts 94°
2026-04-25 16:16 43.09432 -33.16360 38961 ft 504 kts 94°
2026-04-25 16:17 43.09276 -33.06871 38971 ft 504 kts 93°
2026-04-25 16:17 43.09108 -32.97289 38971 ft 504 kts 93°
2026-04-25 16:18 43.08937 -32.87770 38976 ft 504 kts 93°
2026-04-25 16:18 43.08757 -32.78188 38977 ft 503 kts 93°
2026-04-25 16:19 43.08570 -32.68688 38978 ft 502 kts 93°
2026-04-25 16:19 43.08375 -32.59196 38980 ft 502 kts 93°
2026-04-25 16:20 43.08065 -32.44916 38988 ft 503 kts 92°
2026-04-25 16:21 43.07740 -32.30613 39023 ft 502 kts 93°
2026-04-25 16:21 43.07514 -32.21154 38985 ft 500 kts 93°
2026-04-25 16:22 43.07280 -32.11674 38988 ft 500 kts 93°
2026-04-25 16:22 43.07039 -32.02242 39002 ft 499 kts 92°
2026-04-25 16:23 43.06789 -31.92784 39016 ft 499 kts 92°
2026-04-25 16:23 43.06533 -31.83332 39018 ft 500 kts 92°
2026-04-25 16:24 43.06269 -31.73878 39030 ft 499 kts 92°
2026-04-25 16:24 43.05999 -31.64494 39027 ft 498 kts 92°
2026-04-25 16:25 43.05719 -31.55022 39022 ft 498 kts 92°
2026-04-25 16:25 43.05434 -31.45655 39027 ft 497 kts 92°
2026-04-25 16:26 43.05138 -31.36215 39030 ft 497 kts 92°
2026-04-25 16:26 43.04839 -31.26863 39028 ft 497 kts 93°
2026-04-25 16:27 43.04527 -31.17455 39030 ft 496 kts 93°
2026-04-25 16:27 43.04211 -31.08079 39028 ft 497 kts 93°
2026-04-25 16:28 43.03885 -30.98645 39037 ft 496 kts 93°
2026-04-25 16:28 43.03554 -30.89314 39043 ft 497 kts 93°
2026-04-25 16:29 43.03213 -30.79933 39052 ft 495 kts 93°
2026-04-25 16:29 43.02868 -30.70574 39045 ft 494 kts 93°
2026-04-25 16:30 43.02513 -30.61199 39048 ft 494 kts 93°
2026-04-25 16:30 43.02153 -30.51879 39051 ft 493 kts 93°
2026-04-25 16:31 43.01785 -30.42589 39059 ft 493 kts 93°
2026-04-25 16:31 43.01409 -30.33260 39061 ft 493 kts 93°
2026-04-25 16:32 43.01026 -30.23926 39062 ft 494 kts 93°
2026-04-25 16:32 43.00634 -30.14594 39067 ft 494 kts 93°
2026-04-25 16:33 43.00236 -30.05312 39071 ft 493 kts 93°
2026-04-25 16:33 42.99806 -29.95963 39078 ft 493 kts 94°
2026-04-25 16:34 42.99280 -29.86667 39081 ft 492 kts 94°
2026-04-25 16:34 42.98743 -29.77424 39086 ft 492 kts 94°
2026-04-25 16:35 42.98203 -29.68120 39087 ft 491 kts 94°
2026-04-25 16:35 42.97665 -29.58917 39090 ft 491 kts 94°
2026-04-25 16:36 42.97117 -29.49669 39092 ft 491 kts 94°
2026-04-25 16:36 42.96561 -29.40422 39093 ft 491 kts 94°
2026-04-25 16:37 42.95997 -29.31183 39090 ft 486 kts 95°
2026-04-25 16:37 42.95716 -29.26623 39091 ft 473 kts 95°
2026-04-25 16:37 42.95443 -29.22232 39100 ft 467 kts 95°
2026-04-25 16:38 42.94890 -29.13384 39098 ft 469 kts 95°
2026-04-25 16:38 42.94335 -29.04618 38880 ft 464 kts 95°
2026-04-25 16:38 42.94055 -29.00219 38393 ft 463 kts 95°
2026-04-25 16:39 42.93778 -28.95917 37853 ft 461 kts 95°
2026-04-25 16:39 42.93499 -28.91596 37390 ft 458 kts 95°
2026-04-25 16:39 42.93220 -28.87311 36987 ft 454 kts 95°
2026-04-25 16:39 42.92942 -28.83059 36652 ft 449 kts 95°
2026-04-25 16:40 42.92661 -28.78799 36317 ft 446 kts 95°
2026-04-25 16:40 42.92386 -28.74635 35968 ft 444 kts 95°
2026-04-25 16:40 42.92107 -28.70451 35614 ft 441 kts 94°
2026-04-25 16:40 42.91830 -28.66315 35263 ft 439 kts 94°
2026-04-25 16:41 42.91556 -28.62235 34933 ft 436 kts 94°
2026-04-25 16:41 42.91463 -28.60876 34811 ft 435 kts 94°
2026-04-25 16:41 42.90729 -28.50067 33812 ft 426 kts 94°
2026-04-25 16:42 42.90456 -28.46081 33456 ft 422 kts 94°
2026-04-25 16:42 42.90179 -28.42082 33054 ft 420 kts 94°
2026-04-25 16:42 42.89906 -28.38136 32574 ft 420 kts 94°
2026-04-25 16:42 42.89633 -28.34223 32036 ft 422 kts 95°
2026-04-25 16:43 42.89354 -28.30253 31473 ft 423 kts 95°
2026-04-25 16:43 42.89074 -28.26277 30938 ft 424 kts 95°
2026-04-25 16:43 42.88789 -28.22253 30385 ft 425 kts 95°
2026-04-25 16:43 42.88506 -28.18268 29853 ft 426 kts 95°
2026-04-25 16:44 42.88220 -28.14240 29328 ft 426 kts 95°
2026-04-25 16:44 42.87937 -28.10290 29098 ft 423 kts 95°
2026-04-25 16:44 42.87357 -28.02288 29100 ft 427 kts 95°
2026-04-25 16:45 42.86766 -27.94220 29101 ft 427 kts 95°
2026-04-25 16:45 42.86175 -27.86221 29100 ft 426 kts 95°
2026-04-25 16:46 42.85574 -27.78173 29103 ft 425 kts 95°
2026-04-25 16:46 42.85176 -27.72869 29101 ft 424 kts 95°
2026-04-25 16:47 42.84371 -27.62250 29103 ft 424 kts 95°
2026-04-25 16:47 42.83758 -27.54254 29101 ft 424 kts 95°
2026-04-25 16:48 42.83141 -27.46273 29104 ft 424 kts 95°
2026-04-25 16:48 42.82518 -27.38309 29103 ft 424 kts 95°
2026-04-25 16:49 42.81893 -27.30366 29101 ft 424 kts 95°
2026-04-25 16:49 42.81261 -27.22405 29102 ft 423 kts 95°
2026-04-25 16:50 42.80622 -27.14457 29102 ft 423 kts 95°
2026-04-25 16:50 42.79985 -27.06581 29102 ft 422 kts 95°
2026-04-25 16:51 42.79334 -26.98621 29102 ft 421 kts 95°
2026-04-25 16:51 42.78901 -26.93346 29101 ft 422 kts 95°
2026-04-25 16:52 42.78030 -26.82823 29102 ft 422 kts 95°
2026-04-25 16:52 42.77369 -26.74940 29101 ft 422 kts 95°
2026-04-25 16:53 42.76360 -26.63031 29101 ft 422 kts 95°
2026-04-25 16:54 42.75687 -26.55155 29101 ft 422 kts 95°
2026-04-25 16:54 42.75003 -26.47222 29101 ft 422 kts 95°
2026-04-25 16:55 42.74321 -26.39367 29101 ft 422 kts 95°
2026-04-25 16:55 42.73630 -26.31473 29100 ft 422 kts 95°
2026-04-25 16:56 42.72933 -26.23581 29101 ft 422 kts 95°
2026-04-25 16:56 42.72229 -26.15692 29101 ft 422 kts 95°
2026-04-25 16:57 42.71520 -26.07777 29101 ft 422 kts 95°
2026-04-25 16:57 42.70806 -25.99892 29101 ft 422 kts 95°
2026-04-25 16:58 42.70092 -25.92045 29099 ft 421 kts 95°
2026-04-25 16:58 42.69363 -25.84110 29099 ft 421 kts 95°
2026-04-25 16:59 42.68637 -25.76284 29098 ft 421 kts 94°
2026-04-25 16:59 42.67903 -25.68414 29094 ft 420 kts 94°
2026-04-25 17:00 42.67169 -25.60588 29093 ft 420 kts 94°
2026-04-25 17:00 42.66426 -25.52729 29091 ft 419 kts 94°
2026-04-25 17:01 42.65677 -25.44892 29089 ft 419 kts 94°
2026-04-25 17:01 42.64926 -25.37070 29089 ft 419 kts 94°
2026-04-25 17:02 42.64170 -25.29258 29087 ft 418 kts 95°
2026-04-25 17:02 42.63409 -25.21458 29086 ft 417 kts 95°
2026-04-25 17:03 42.62647 -25.13706 29084 ft 418 kts 95°
2026-04-25 17:03 42.61879 -25.05928 29083 ft 417 kts 95°
2026-04-25 17:04 42.61104 -24.98143 29082 ft 417 kts 95°
2026-04-25 17:04 42.60325 -24.90384 29079 ft 416 kts 95°
2026-04-25 17:05 42.59539 -24.82580 29079 ft 416 kts 95°
2026-04-25 17:05 42.58354 -24.70953 29075 ft 415 kts 95°
2026-04-25 17:06 42.57557 -24.63213 29073 ft 415 kts 94°
2026-04-25 17:06 42.56762 -24.55520 29071 ft 415 kts 94°
2026-04-25 17:07 42.55953 -24.47739 29072 ft 417 kts 94°
2026-04-25 17:07 42.55140 -24.39983 29068 ft 419 kts 94°
2026-04-25 17:08 42.54314 -24.32161 29065 ft 419 kts 95°
2026-04-25 17:08 42.53482 -24.24333 29065 ft 419 kts 95°
2026-04-25 17:09 42.52653 -24.16583 29064 ft 420 kts 95°
2026-04-25 17:09 42.51808 -24.08733 29062 ft 419 kts 95°
2026-04-25 17:10 42.50965 -24.00961 29063 ft 417 kts 95°
2026-04-25 17:10 42.50123 -23.93246 29061 ft 417 kts 95°
2026-04-25 17:11 42.49274 -23.85496 29060 ft 417 kts 95°
2026-04-25 17:11 42.48416 -23.77732 29059 ft 418 kts 95°
2026-04-25 17:12 42.47554 -23.69975 29060 ft 418 kts 96°
2026-04-25 17:12 42.46685 -23.62208 29060 ft 419 kts 95°
2026-04-25 17:13 42.46099 -23.56989 29056 ft 419 kts 96°
2026-04-25 17:13 42.44926 -23.46637 29058 ft 419 kts 96°
2026-04-25 17:14 42.44044 -23.38900 29055 ft 419 kts 96°
2026-04-25 17:14 42.43151 -23.31120 29054 ft 419 kts 96°
2026-04-25 17:15 42.42250 -23.23326 29055 ft 420 kts 97°
2026-04-25 17:15 42.41346 -23.15534 29049 ft 420 kts 97°
2026-04-25 17:16 42.40435 -23.07732 29055 ft 421 kts 97°
2026-04-25 17:16 42.39524 -22.99976 29052 ft 420 kts 97°
2026-04-25 17:17 42.38602 -22.92184 29042 ft 420 kts 97°
2026-04-25 17:17 42.37667 -22.84347 29042 ft 422 kts 97°
2026-04-25 17:18 42.36737 -22.76576 29039 ft 423 kts 97°
2026-04-25 17:18 42.35792 -22.68726 29045 ft 421 kts 97°
2026-04-25 17:19 42.34856 -22.60978 29042 ft 419 kts 98°
2026-04-25 17:19 42.33909 -22.53203 29046 ft 420 kts 98°
2026-04-25 17:20 42.32957 -22.45419 29050 ft 422 kts 98°
2026-04-25 17:20 42.31996 -22.37644 29047 ft 423 kts 98°
2026-04-25 17:21 42.31021 -22.29791 29046 ft 424 kts 99°
2026-04-25 17:21 42.30047 -22.21970 29050 ft 425 kts 99°
2026-04-25 17:22 42.29396 -22.16754 29049 ft 425 kts 100°
2026-04-25 17:22 42.28074 -22.06259 29048 ft 426 kts 101°
2026-04-25 17:23 42.27073 -21.98395 29051 ft 427 kts 101°
2026-04-25 17:23 42.26073 -21.90534 29061 ft 428 kts 101°
2026-04-25 17:24 42.25055 -21.82633 29055 ft 428 kts 102°
2026-04-25 17:24 42.24041 -21.74762 29063 ft 428 kts 102°
2026-04-25 17:25 42.23013 -21.66860 29069 ft 428 kts 102°
2026-04-25 17:25 42.21983 -21.58969 29068 ft 428 kts 102°
2026-04-25 17:26 42.20945 -21.51039 29068 ft 428 kts 102°
2026-04-25 17:26 42.19906 -21.43164 29068 ft 428 kts 103°
2026-04-25 17:27 42.18858 -21.35296 29074 ft 428 kts 102°
2026-04-25 17:27 42.18158 -21.30023 29067 ft 428 kts 103°
2026-04-25 17:28 42.16752 -21.19539 29070 ft 428 kts 104°
2026-04-25 17:28 42.15691 -21.11670 29073 ft 428 kts 104°
2026-04-25 17:29 42.14623 -21.03787 29075 ft 427 kts 104°
2026-04-25 17:29 42.13557 -20.95981 29079 ft 427 kts 104°
2026-04-25 17:30 42.12483 -20.88156 29074 ft 427 kts 104°
2026-04-25 17:30 42.11398 -20.80277 29077 ft 428 kts 104°
2026-04-25 17:31 42.10314 -20.72463 29076 ft 428 kts 104°
2026-04-25 17:31 42.09216 -20.64568 29078 ft 429 kts 104°
2026-04-25 17:32 42.08121 -20.56750 29079 ft 428 kts 104°
2026-04-25 17:32 42.07011 -20.48873 29077 ft 428 kts 104°
2026-04-25 17:33 42.05909 -20.41077 29079 ft 428 kts 104°
2026-04-25 17:33 42.04791 -20.33203 29077 ft 427 kts 105°
2026-04-25 17:34 42.03678 -20.25408 29079 ft 426 kts 105°
2026-04-25 17:34 42.02557 -20.17617 29082 ft 425 kts 105°
2026-04-25 17:35 42.01432 -20.09823 29079 ft 425 kts 105°
2026-04-25 17:35 42.00305 -20.02066 29082 ft 425 kts 105°
2026-04-25 17:36 41.99026 -19.94357 29078 ft 425 kts 107°
2026-04-25 17:36 41.97655 -19.86620 29079 ft 426 kts 107°
2026-04-25 17:37 41.96288 -19.78931 29084 ft 425 kts 107°
2026-04-25 17:37 41.94909 -19.71180 29084 ft 426 kts 107°
2026-04-25 17:38 41.93988 -19.66025 29080 ft 426 kts 107°
2026-04-25 17:38 41.92142 -19.55730 29084 ft 425 kts 107°
2026-04-25 17:39 41.90765 -19.48075 29086 ft 425 kts 107°
2026-04-25 17:39 41.89371 -19.40367 29090 ft 424 kts 108°
2026-04-25 17:40 41.87971 -19.32664 29087 ft 424 kts 108°
2026-04-25 17:40 41.86578 -19.25036 29088 ft 424 kts 108°
2026-04-25 17:41 41.85169 -19.17338 29103 ft 425 kts 108°
2026-04-25 17:41 41.83767 -19.09700 29090 ft 424 kts 108°
2026-04-25 17:42 41.82353 -19.02048 29096 ft 424 kts 108°
2026-04-25 17:42 41.80933 -18.94395 29104 ft 424 kts 108°
2026-04-25 17:43 41.79509 -18.86735 29105 ft 424 kts 108°
2026-04-25 17:43 41.78081 -18.79088 29103 ft 424 kts 108°
2026-04-25 17:44 41.76652 -18.71465 29111 ft 425 kts 108°
2026-04-25 17:44 41.75206 -18.63790 29105 ft 424 kts 108°
2026-04-25 17:45 41.74239 -18.58684 29118 ft 424 kts 108°
2026-04-25 17:45 41.72315 -18.48536 29119 ft 424 kts 108°
2026-04-25 17:46 41.70864 -18.40918 29113 ft 423 kts 107°
2026-04-25 17:46 41.69406 -18.33302 29118 ft 423 kts 108°
2026-04-25 17:47 41.67942 -18.25672 29115 ft 424 kts 108°
2026-04-25 17:47 41.66479 -18.18084 29120 ft 423 kts 108°
2026-04-25 17:48 41.64270 -18.06680 29121 ft 423 kts 108°
2026-04-25 17:49 41.62797 -17.99113 29121 ft 422 kts 108°
2026-04-25 17:49 41.61319 -17.91554 29128 ft 421 kts 108°
2026-04-25 17:50 41.59835 -17.83994 29134 ft 421 kts 108°
2026-04-25 17:50 41.58347 -17.76433 29135 ft 422 kts 108°
2026-04-25 17:51 41.56865 -17.68931 29135 ft 421 kts 108°
2026-04-25 17:51 41.55363 -17.61364 29137 ft 420 kts 108°
2026-04-25 17:52 41.53869 -17.53860 29147 ft 420 kts 108°
2026-04-25 17:52 41.52380 -17.46407 29137 ft 419 kts 108°
2026-04-25 17:53 41.50869 -17.38873 29142 ft 419 kts 108°
2026-04-25 17:53 41.49367 -17.31407 29140 ft 419 kts 109°
2026-04-25 17:54 41.47856 -17.23941 29153 ft 419 kts 109°
2026-04-25 17:54 41.46332 -17.16435 29153 ft 418 kts 109°
2026-04-25 17:55 41.44822 -17.09011 29161 ft 418 kts 109°
2026-04-25 17:55 41.43282 -17.01478 29155 ft 420 kts 109°
2026-04-25 17:56 41.41756 -16.94034 29162 ft 418 kts 109°
2026-04-25 17:56 41.40224 -16.86589 29158 ft 417 kts 109°
2026-04-25 17:57 41.38688 -16.79156 29161 ft 416 kts 109°
2026-04-25 17:57 41.37155 -16.71762 29163 ft 416 kts 108°
2026-04-25 17:58 41.35614 -16.64360 29161 ft 416 kts 108°
2026-04-25 17:58 41.34069 -16.56963 29163 ft 416 kts 108°
2026-04-25 17:59 41.32524 -16.49585 29160 ft 416 kts 108°
2026-04-25 17:59 41.30969 -16.42185 29164 ft 415 kts 108°
2026-04-25 18:00 41.29412 -16.34809 29163 ft 416 kts 108°
2026-04-25 18:00 41.27847 -16.27416 29162 ft 417 kts 108°
2026-04-25 18:01 41.26282 -16.20040 29162 ft 416 kts 108°
2026-04-25 18:01 41.24711 -16.12678 29163 ft 416 kts 108°
2026-04-25 18:02 41.23134 -16.05311 29162 ft 416 kts 108°
2026-04-25 18:02 41.21556 -15.97965 29165 ft 415 kts 108°
2026-04-25 18:03 41.19979 -15.90637 29174 ft 416 kts 108°
2026-04-25 18:03 41.18386 -15.83273 29182 ft 415 kts 108°
2026-04-25 18:04 41.16785 -15.75895 29183 ft 416 kts 108°
2026-04-25 18:04 41.15195 -15.68591 29184 ft 416 kts 108°
2026-04-25 18:05 41.13588 -15.61226 29184 ft 416 kts 108°
2026-04-25 18:05 41.11973 -15.53862 29184 ft 416 kts 108°
2026-04-25 18:06 41.10361 -15.46528 29184 ft 417 kts 108°
2026-04-25 18:06 41.08740 -15.39178 29183 ft 416 kts 107°
2026-04-25 18:07 41.07107 -15.31800 29179 ft 417 kts 108°
2026-04-25 18:07 41.05485 -15.24501 29178 ft 417 kts 108°
2026-04-25 18:08 41.03846 -15.17146 29179 ft 416 kts 108°
2026-04-25 18:08 41.02204 -15.09812 29181 ft 417 kts 107°
2026-04-25 18:09 41.00478 -15.02543 29181 ft 416 kts 112°
2026-04-25 18:09 40.97769 -14.95825 29181 ft 412 kts 126°
2026-04-25 18:10 40.94998 -14.90738 29183 ft 412 kts 128°
2026-04-25 18:10 40.91043 -14.83608 29181 ft 412 kts 128°
2026-04-25 18:11 40.87677 -14.77509 29179 ft 412 kts 127°
2026-04-25 18:11 40.84313 -14.71405 29178 ft 413 kts 127°
2026-04-25 18:12 40.80931 -14.65277 29178 ft 413 kts 127°
2026-04-25 18:12 40.77568 -14.59193 29179 ft 413 kts 127°
2026-04-25 18:13 40.74177 -14.53069 29177 ft 412 kts 127°
2026-04-25 18:13 40.70797 -14.46973 29178 ft 412 kts 127°
2026-04-25 18:14 40.65759 -14.37912 29171 ft 411 kts 127°
2026-04-25 18:14 40.62370 -14.31835 29165 ft 411 kts 127°
2026-04-25 18:15 40.58987 -14.25780 29166 ft 411 kts 127°
2026-04-25 18:15 40.55618 -14.19755 29165 ft 411 kts 127°
2026-04-25 18:16 40.52240 -14.13729 29164 ft 411 kts 127°
2026-04-25 18:17 40.47152 -14.04678 29162 ft 411 kts 127°
2026-04-25 18:17 40.43750 -13.98643 29162 ft 410 kts 127°
2026-04-25 18:18 40.40368 -13.92652 29160 ft 410 kts 127°
2026-04-25 18:18 40.36984 -13.86665 29163 ft 410 kts 126°
2026-04-25 18:19 40.33596 -13.80686 29161 ft 409 kts 126°
2026-04-25 18:19 40.30220 -13.74739 29161 ft 408 kts 126°
2026-04-25 18:20 40.26829 -13.68775 29160 ft 408 kts 127°
2026-04-25 18:20 40.23448 -13.62845 29156 ft 409 kts 126°
2026-04-25 18:21 40.20048 -13.56891 29158 ft 411 kts 126°
2026-04-25 18:21 40.16620 -13.50899 29156 ft 412 kts 126°
2026-04-25 18:22 40.13204 -13.44937 29155 ft 412 kts 126°
2026-04-25 18:22 40.09780 -13.38973 29155 ft 410 kts 126°
2026-04-25 18:23 40.06368 -13.33042 29152 ft 410 kts 127°
2026-04-25 18:23 40.02931 -13.27079 29154 ft 411 kts 127°
2026-04-25 18:24 39.99504 -13.21145 29155 ft 410 kts 127°
2026-04-25 18:24 39.96093 -13.15249 29152 ft 409 kts 127°
2026-04-25 18:25 39.92668 -13.09337 29147 ft 408 kts 127°
2026-04-25 18:25 39.89247 -13.03445 29145 ft 408 kts 127°
2026-04-25 18:26 39.85846 -12.97597 29151 ft 408 kts 127°
2026-04-25 18:26 39.82398 -12.91682 29155 ft 409 kts 127°
2026-04-25 18:27 39.78973 -12.85819 29154 ft 409 kts 127°
2026-04-25 18:27 39.75563 -12.79990 29152 ft 408 kts 127°
2026-04-25 18:28 39.72108 -12.74098 29147 ft 408 kts 127°
2026-04-25 18:28 39.68673 -12.68248 29145 ft 408 kts 127°
2026-04-25 18:29 39.63522 -12.59495 29140 ft 407 kts 128°
2026-04-25 18:30 39.56682 -12.47910 29133 ft 406 kts 128°
2026-04-25 18:30 39.53245 -12.42105 29130 ft 405 kts 128°
2026-04-25 18:31 39.49830 -12.36346 29127 ft 404 kts 128°
2026-04-25 18:31 39.46412 -12.30595 29123 ft 403 kts 129°
2026-04-25 18:32 39.42983 -12.24838 29121 ft 403 kts 129°
2026-04-25 18:32 39.39963 -12.18737 29114 ft 404 kts 118°
2026-04-25 18:33 39.37744 -12.12057 29112 ft 405 kts 113°
2026-04-25 18:33 39.35707 -12.05323 29115 ft 405 kts 112°
2026-04-25 18:34 39.33653 -11.98573 29113 ft 404 kts 112°
2026-04-25 18:34 39.31590 -11.91833 29110 ft 405 kts 113°
2026-04-25 18:35 39.29514 -11.85078 29113 ft 405 kts 112°
2026-04-25 18:35 39.27445 -11.78363 29113 ft 406 kts 112°
2026-04-25 18:36 39.25355 -11.71599 29109 ft 406 kts 113°
2026-04-25 18:36 39.23275 -11.64886 29109 ft 406 kts 112°
2026-04-25 18:37 39.21167 -11.58102 29104 ft 407 kts 112°
2026-04-25 18:37 39.19073 -11.51373 29106 ft 408 kts 112°
2026-04-25 18:38 39.16963 -11.44611 29103 ft 408 kts 112°
2026-04-25 18:38 39.14845 -11.37839 29103 ft 408 kts 112°
2026-04-25 18:39 39.12721 -11.31071 28888 ft 408 kts 112°
2026-04-25 18:39 39.11658 -11.27685 28627 ft 405 kts 113°
2026-04-25 18:39 39.10608 -11.24347 28371 ft 402 kts 112°
2026-04-25 18:40 39.09547 -11.20978 28111 ft 399 kts 112°
2026-04-25 18:40 39.08488 -11.17620 27850 ft 398 kts 112°
2026-04-25 18:40 39.07453 -11.14340 27594 ft 397 kts 112°
2026-04-25 18:40 39.06424 -11.11085 27342 ft 397 kts 112°
2026-04-25 18:41 39.05387 -11.07812 27088 ft 397 kts 112°
2026-04-25 18:41 39.04335 -11.04495 26831 ft 398 kts 112°
2026-04-25 18:41 39.03300 -11.01226 26574 ft 398 kts 112°
2026-04-25 18:41 39.02255 -10.97931 26244 ft 399 kts 112°
2026-04-25 18:42 39.01210 -10.94644 25824 ft 399 kts 112°
2026-04-25 18:42 39.00865 -10.93558 25676 ft 399 kts 112°
2026-04-25 18:42 38.99115 -10.88064 25092 ft 396 kts 112°
2026-04-25 18:42 38.98072 -10.84794 25081 ft 396 kts 112°
2026-04-25 18:43 38.97042 -10.81570 25046 ft 395 kts 112°
2026-04-25 18:43 38.96055 -10.78291 24538 ft 399 kts 111°
2026-04-25 18:43 38.95082 -10.74931 23572 ft 411 kts 110°
2026-04-25 18:43 38.94077 -10.71456 22752 ft 417 kts 110°
2026-04-25 18:44 38.93067 -10.67983 22178 ft 416 kts 110°
2026-04-25 18:44 38.92066 -10.64556 21724 ft 412 kts 110°
2026-04-25 18:44 38.91057 -10.61114 21292 ft 408 kts 110°
2026-04-25 18:44 38.90065 -10.57735 20833 ft 405 kts 110°
2026-04-25 18:45 38.89075 -10.54374 20351 ft 402 kts 109°
2026-04-25 18:45 38.88098 -10.51056 19868 ft 400 kts 109°
2026-04-25 18:45 38.87117 -10.47730 19395 ft 397 kts 109°
2026-04-25 18:45 38.86147 -10.44443 18930 ft 395 kts 109°
2026-04-25 18:46 38.85178 -10.41166 18467 ft 392 kts 109°
2026-04-25 18:46 38.84215 -10.37908 18016 ft 389 kts 109°
2026-04-25 18:46 38.83280 -10.34679 17566 ft 387 kts 108°
2026-04-25 18:46 38.82456 -10.31456 17116 ft 384 kts 107°
2026-04-25 18:47 38.81643 -10.28166 16670 ft 382 kts 107°
2026-04-25 18:47 38.80844 -10.24933 16228 ft 380 kts 107°
2026-04-25 18:47 38.80050 -10.21748 15793 ft 377 kts 107°
2026-04-25 18:47 38.79254 -10.18579 15362 ft 375 kts 107°
2026-04-25 18:48 38.78451 -10.15393 14929 ft 373 kts 107°
2026-04-25 18:48 38.77660 -10.12269 14503 ft 370 kts 107°
2026-04-25 18:48 38.76865 -10.09137 14082 ft 367 kts 107°
2026-04-25 18:48 38.76083 -10.06058 13665 ft 365 kts 107°
2026-04-25 18:49 38.75305 -10.02997 13245 ft 362 kts 107°
2026-04-25 18:49 38.74566 -10.00099 12848 ft 360 kts 107°
2026-04-25 18:49 38.73794 -9.97077 12465 ft 356 kts 107°
2026-04-25 18:49 38.73028 -9.94080 12148 ft 351 kts 107°
2026-04-25 18:50 38.72274 -9.91139 11835 ft 346 kts 107°
2026-04-25 18:50 38.71537 -9.88261 11528 ft 341 kts 107°
2026-04-25 18:50 38.70796 -9.85378 11225 ft 336 kts 107°
2026-04-25 18:50 38.70081 -9.82598 10934 ft 332 kts 107°
2026-04-25 18:51 38.69363 -9.79810 10635 ft 327 kts 107°
2026-04-25 18:51 38.69124 -9.78884 10538 ft 325 kts 107°
2026-04-25 18:51 38.67956 -9.74352 10065 ft 317 kts 107°
2026-04-25 18:51 38.67270 -9.71694 9474 ft 308 kts 107°
2026-04-25 18:52 38.66610 -9.69146 8882 ft 301 kts 107°
2026-04-25 18:52 38.65971 -9.66677 8315 ft 294 kts 107°
2026-04-25 18:52 38.65327 -9.64189 7801 ft 286 kts 107°
2026-04-25 18:52 38.64708 -9.61802 7379 ft 276 kts 107°
2026-04-25 18:53 38.64108 -9.59489 6933 ft 268 kts 106°
2026-04-25 18:53 38.63521 -9.57225 6627 ft 265 kts 106°
2026-04-25 18:53 38.62941 -9.54990 6352 ft 265 kts 106°
2026-04-25 18:53 38.62359 -9.52750 6072 ft 265 kts 106°
2026-04-25 18:54 38.61196 -9.48284 5525 ft 263 kts 105°
2026-04-25 18:54 38.60625 -9.46095 5290 ft 261 kts 105°
2026-04-25 18:54 38.60043 -9.43863 5042 ft 260 kts 105°
2026-04-25 18:55 38.59664 -9.42411 4877 ft 260 kts 105°
2026-04-25 18:55 38.58904 -9.39502 4670 ft 254 kts 105°
2026-04-25 18:55 38.58349 -9.37387 4672 ft 243 kts 105°
2026-04-25 18:55 38.57826 -9.35398 4671 ft 232 kts 105°
2026-04-25 18:56 38.57326 -9.33492 4662 ft 225 kts 105°
2026-04-25 18:56 38.56924 -9.31553 4637 ft 224 kts 88°
2026-04-25 18:56 38.57246 -9.29667 4489 ft 216 kts 65°
2026-04-25 18:56 38.57835 -9.27910 4193 ft 213 kts 64°
2026-04-25 18:57 38.58412 -9.26188 4042 ft 203 kts 65°
2026-04-25 18:57 38.58961 -9.24589 3997 ft 191 kts 56°
2026-04-25 18:57 38.59871 -9.23459 3839 ft 183 kts 32°
2026-04-25 18:57 38.60240 -9.23182 3759 ft 182 kts 28°
2026-04-25 18:58 38.62192 -9.22096 3358 ft 181 kts 21°
2026-04-25 18:58 38.64519 -9.20898 2886 ft 180 kts 22°
2026-04-25 18:58 38.65674 -9.20282 2652 ft 177 kts 21°
2026-04-25 18:59 38.67835 -9.19117 2210 ft 160 kts 21°
2026-04-25 18:59 38.69791 -9.18058 1786 ft 145 kts 21°
2026-04-25 19:00 38.71553 -9.17106 1401 ft 130 kts 19°
2026-04-25 19:00 38.72396 -9.16656 1290 ft 130 kts 19°
2026-04-25 19:01 38.74080 -9.15757 968 ft 130 kts 20°
2026-04-25 19:01 38.74916 -9.15292 764 ft 129 kts 18°
2026-04-25 19:01 38.75747 -9.14865 608 ft 130 kts 19°
2026-04-25 19:01 38.76591 -9.14411 434 ft 131 kts 18°
2026-04-25 19:02 38.77897 -9.13718 389 ft 56 kts 21°
2026-04-25 19:02 38.78213 -9.13537 389 ft 37 kts 34°
2026-04-25 19:02 38.78344 -9.13390 388 ft 13 kts 48°
2026-04-25 19:03 38.78351 -9.13269 388 ft 11 kts 150°
2026-04-25 19:03 38.78213 -9.13317 388 ft 13 kts 204°
2026-04-25 19:03 38.78128 -9.13365 388 ft 14 kts 205°
2026-04-25 19:04 38.77934 -9.13391 388 ft 15 kts 167°
2026-04-25 19:04 38.77828 -9.13362 388 ft 15 kts 169°
2026-04-25 19:05 38.77607 -9.13319 388 ft 16 kts 178°
2026-04-25 19:05 38.77480 -9.13271 388 ft 6 kts 110°
2026-04-25 19:05 38.77480 -9.13217 388 ft 3 kts 80°
2026-04-25 19:06 38.77484 -9.13185 388 ft 3 kts 78°
2026-04-25 19:06 38.77487 -9.13169 388 ft 0 kts 78°